Latitude: N 50° 09' 49" Longitude: W 05° 11' 53" Elevation: 168m ASL

There are 18 visitors online

Adverts

<- Previous Day | Today | Next Day ->

All Data for 15 November 2017

Time
A - D
Temp
A - D
Dew Point
A - D
Humidity
A - D
Pressure
A - D
Wind
A - D
Wind Dir Gust
A - D
Rain Rate
A - D
Rain Total
00:01 10.7 10.6 99 1024.9 4.5 S 6.9 0.8 0.1
00:02 10.7 10.6 99 1025.0 3.8 S 6.9 0.8 0.1
00:03 10.7 10.6 99 1025.0 4.5 S 6.9 0.8 0.1
00:03 10.7 10.6 99 1025.0 4.5 S 6.9 0.8 0.1
00:05 10.8 10.7 99 1025.0 3.8 S 6.9 0.8 0.1
00:06 10.8 10.7 99 1024.9 3.8 S 5.4 0.0 0.1
00:06 10.8 10.7 99 1024.9 3.8 S 5.4 0.0 0.1
00:08 10.8 10.7 99 1025.1 3.8 S 4.5 0.0 0.1
00:09 10.8 10.7 99 1025.0 3.8 S 4.5 0.0 0.1
00:09 10.8 10.7 99 1025.0 3.8 S 4.5 0.0 0.1
00:10 10.8 10.7 99 1024.9 3.8 WSW 6.0 0.8 0.1
00:12 10.8 10.7 99 1025.0 3.1 S 6.0 0.8 0.1
00:13 10.8 10.7 99 1024.8 8.3 WSW 8.3 0.8 0.1
00:14 10.8 10.7 99 1024.8 6.9 S 8.3 0.8 0.1
00:14 10.8 10.7 99 1024.8 6.9 S 8.3 0.8 0.1
00:15 10.8 10.7 99 1024.8 5.4 WSW 8.3 0.0 0.1
00:17 10.8 10.7 99 1024.8 4.5 WSW 8.3 0.0 0.1
00:18 10.8 10.7 99 1024.8 5.4 S 8.3 0.0 0.1
00:19 10.8 10.7 99 1024.9 3.1 S 8.3 0.0 0.1
00:20 10.8 10.7 99 1024.9 5.4 WSW 8.3 0.0 0.1
00:21 10.7 10.6 99 1024.9 4.5 S 8.3 0.0 0.1
00:22 10.7 10.6 99 1024.7 3.8 S 8.3 0.0 0.1
00:23 10.8 10.7 99 1024.8 5.4 WSW 8.3 0.0 0.1
00:24 10.7 10.6 99 1024.7 5.4 WSW 6.9 0.0 0.1
00:25 10.7 10.6 99 1024.8 3.8 WSW 6.9 0.0 0.1
00:26 10.7 10.6 99 1024.9 3.1 WSW 5.4 0.0 0.1
00:27 10.7 10.6 99 1024.9 6.0 S 6.0 0.0 0.1
00:28 10.7 10.6 99 1024.8 5.4 WSW 6.0 0.0 0.1
00:29 10.7 10.6 99 1024.9 5.4 W 6.0 0.0 0.1
00:30 10.7 10.6 99 1024.8 6.0 S 6.9 0.0 0.1
00:31 10.7 10.6 99 1024.8 4.5 S 6.9 0.0 0.1
00:32 10.7 10.6 99 1024.8 5.4 S 6.9 0.0 0.1
00:33 10.7 10.6 99 1024.8 6.0 S 6.9 0.0 0.1
00:33 10.7 10.6 99 1024.8 6.0 S 6.9 0.0 0.1
00:35 10.7 10.6 99 1024.7 7.6 WSW 7.6 0.0 0.1
00:36 10.7 10.6 99 1024.7 4.5 W 7.6 0.0 0.1
00:37 10.7 10.6 99 1024.7 5.4 S 7.6 0.0 0.1
00:38 10.7 10.6 99 1024.8 5.4 S 7.6 0.0 0.1
00:39 10.7 10.6 99 1024.7 5.4 WSW 7.6 0.0 0.1
00:40 10.7 10.6 99 1024.7 9.2 W 9.2 0.0 0.1
00:41 10.7 10.6 99 1024.7 6.0 WSW 9.2 0.0 0.1
00:42 10.7 10.6 99 1024.7 4.5 SE 9.2 0.0 0.1
00:43 10.7 10.6 99 1024.7 5.4 W 9.2 0.0 0.1
00:44 10.7 10.6 99 1024.6 6.0 WSW 9.2 0.0 0.1
00:45 10.7 10.6 99 1024.7 6.0 WSW 9.2 0.0 0.1
00:46 10.7 10.6 99 1024.7 4.5 WSW 9.2 0.0 0.1
00:47 10.7 10.6 99 1024.7 7.6 S 9.2 0.0 0.1
00:48 10.7 10.6 99 1024.8 6.9 N 9.2 0.0 0.1
00:49 10.7 10.6 99 1024.8 5.4 WSW 9.2 0.0 0.1
00:50 10.6 10.5 99 1024.7 6.9 WSW 7.6 0.0 0.1
00:51 10.7 10.6 99 1024.8 4.5 S 7.6 0.0 0.1
00:52 10.6 10.5 99 1024.8 4.5 WSW 7.6 0.0 0.1
00:53 10.7 10.6 99 1024.7 6.0 WSW 7.6 0.0 0.1
00:54 10.6 10.5 99 1024.8 4.5 WSW 7.6 0.0 0.1
00:55 10.6 10.5 99 1024.9 4.5 WSW 7.6 0.0 0.1
00:56 10.6 10.5 99 1024.8 3.8 WSW 7.6 0.0 0.1
00:57 10.6 10.5 99 1024.8 3.1 WSW 7.6 0.0 0.1
00:58 10.6 10.5 99 1024.9 3.8 W 6.9 0.0 0.1
00:58 10.6 10.5 99 1024.9 3.8 W 6.9 0.0 0.1
00:59 10.6 10.5 99 1024.8 4.5 W 6.9 0.0 0.1
01:00 10.6 10.5 99 1024.8 3.8 N 6.9 0.0 0.1
01:02 10.6 10.5 99 1024.8 3.8 S 6.0 0.0 0.1
01:03 10.6 10.5 99 1024.8 4.5 S 6.0 0.0 0.1
01:04 10.6 10.5 99 1024.8 3.8 S 4.5 0.0 0.1
01:05 10.6 10.5 99 1024.7 5.4 WSW 5.4 0.0 0.1
01:06 10.6 10.5 99 1024.7 5.4 WSW 5.4 0.0 0.1
01:07 10.6 10.5 99 1024.7 5.4 WSW 5.4 0.0 0.1
01:08 10.6 10.5 99 1024.7 5.4 WSW 5.4 0.0 0.1
01:09 10.6 10.5 99 1024.7 5.4 WSW 5.4 0.0 0.1
01:10 10.6 10.5 99 1024.8 3.8 WSW 5.4 0.0 0.1
01:11 10.6 10.5 99 1024.7 5.4 WSW 5.4 0.0 0.1
01:12 10.6 10.5 99 1024.8 3.8 WSW 5.4 0.0 0.1
01:12 10.6 10.5 99 1024.8 3.8 WSW 5.4 0.0 0.1
01:13 10.6 10.5 99 1024.7 4.5 WSW 5.4 0.0 0.1
01:14 10.6 10.5 99 1024.7 3.8 WSW 5.4 0.0 0.1
01:16 10.5 10.4 99 1024.8 6.0 WSW 6.0 0.0 0.1
01:17 10.6 10.5 99 1024.8 3.8 S 6.0 0.0 0.1
01:18 10.6 10.5 99 1024.8 3.8 S 6.0 0.0 0.1
01:19 10.5 10.4 99 1024.7 3.8 S 6.0 0.0 0.1
01:20 10.5 10.4 99 1024.7 4.5 S 6.0 0.0 0.1
01:21 10.5 10.4 99 1024.7 4.5 N 6.0 0.0 0.1
01:22 10.5 10.4 99 1024.7 3.1 N 6.0 0.0 0.1
01:23 10.5 10.4 99 1024.7 4.5 S 6.0 0.0 0.1
01:24 10.5 10.4 99 1024.6 3.8 S 6.0 0.0 0.1
01:25 10.5 10.4 99 1024.6 3.8 S 6.0 0.0 0.1
01:26 10.5 10.4 99 1024.7 4.5 S 6.0 0.0 0.1
01:27 10.5 10.4 99 1024.6 3.1 S 4.5 0.0 0.1
01:28 10.5 10.4 99 1024.6 3.1 S 4.5 0.0 0.1
01:29 10.5 10.4 99 1024.5 3.1 S 4.5 0.0 0.1
01:30 10.5 10.4 99 1024.6 3.1 S 4.5 0.0 0.1
01:31 10.5 10.4 99 1024.6 2.2 S 4.5 0.0 0.1
01:32 10.5 10.4 99 1024.6 3.1 S 4.5 0.0 0.1
01:33 10.5 10.4 99 1024.5 3.1 S 4.5 0.0 0.1
01:34 10.5 10.4 99 1024.4 3.1 S 4.5 0.0 0.1
01:35 10.4 10.3 99 1024.5 2.2 S 4.5 0.0 0.1
01:36 10.4 10.3 99 1024.5 3.1 S 3.8 0.0 0.1
01:37 10.4 10.3 99 1024.7 2.2 S 3.8 0.0 0.1
01:38 10.4 10.3 99 1024.5 2.2 S 3.1 0.0 0.1
01:39 10.4 10.3 99 1024.5 2.2 S 3.1 0.0 0.1
01:40 10.4 10.3 99 1024.5 3.1 S 3.1 0.0 0.1
01:41 10.4 10.3 99 1024.5 3.8 S 3.8 0.0 0.1
01:42 10.4 10.3 99 1024.4 3.1 S 3.8 0.0 0.1
01:42 10.4 10.3 99 1024.4 3.1 S 3.8 0.0 0.1
01:43 10.4 10.3 99 1024.4 3.1 S 3.8 0.0 0.1
01:44 10.4 10.3 99 1024.4 3.1 S 3.8 0.0 0.1
01:45 10.4 10.3 99 1024.6 3.1 S 3.8 0.0 0.1
01:47 10.4 10.3 99 1024.3 2.2 S 3.8 0.0 0.1
01:48 10.4 10.3 99 1024.5 3.1 S 3.8 0.0 0.1
01:49 10.4 10.3 99 1024.3 3.8 S 3.8 0.0 0.1
01:50 10.4 10.3 99 1024.5 3.1 S 3.8 0.0 0.1
01:51 10.3 10.2 99 1024.5 2.2 S 3.8 0.0 0.1
01:52 10.4 10.3 99 1024.5 3.8 S 3.8 0.8 0.2
01:53 10.4 10.3 99 1024.4 5.4 S 5.4 0.8 0.2
01:54 10.3 10.2 99 1024.4 4.5 S 5.4 0.8 0.2
01:55 10.3 10.2 99 1024.5 3.1 S 5.4 0.8 0.2
01:56 10.4 10.3 99 1024.4 3.1 N 5.4 0.8 0.2
01:57 10.3 10.2 99 1024.4 3.8 S 5.4 0.0 0.2
01:58 10.3 10.2 99 1024.3 4.5 S 5.4 0.0 0.2
01:59 10.3 10.2 99 1024.5 3.1 S 5.4 0.0 0.2
02:00 10.3 10.2 99 1024.6 3.8 S 5.4 0.0 0.2
02:01 10.3 10.2 99 1024.5 3.8 S 5.4 0.0 0.2
02:02 10.3 10.2 99 1024.6 3.8 S 5.4 0.0 0.2
02:03 10.3 10.2 99 1024.5 3.1 S 4.5 0.0 0.2
02:04 10.3 10.2 99 1024.6 4.5 S 4.5 0.0 0.2
02:05 10.3 10.2 99 1024.7 4.5 S 4.5 0.0 0.2
02:05 10.3 10.2 99 1024.7 4.5 S 4.5 0.0 0.2
02:07 10.3 10.2 99 1024.5 4.5 S 4.5 0.0 0.2
02:08 10.3 10.2 99 1024.6 4.5 S 4.5 0.0 0.2
02:09 10.3 10.2 99 1024.7 4.5 S 4.5 0.0 0.2
02:10 10.3 10.2 99 1024.6 6.0 S 6.0 0.0 0.2
02:11 10.3 10.2 99 1024.5 5.4 S 6.0 0.0 0.2
02:12 10.3 10.2 99 1024.6 6.0 S 6.0 0.0 0.2
02:13 10.3 10.2 99 1024.6 5.4 WSW 6.0 0.0 0.2
02:14 10.3 10.2 99 1024.6 5.4 S 6.0 0.0 0.2
02:15 10.2 10.1 99 1024.6 5.4 S 6.0 0.0 0.2
02:16 10.3 10.2 99 1024.5 6.0 WSW 6.0 0.0 0.2
02:17 10.3 10.2 99 1024.7 7.6 WSW 7.6 0.0 0.2
02:18 10.3 10.2 99 1024.7 6.0 WSW 7.6 0.0 0.2
02:19 10.3 10.2 99 1024.6 6.9 WSW 7.6 0.0 0.2
02:20 10.3 10.2 99 1024.6 6.0 WSW 7.6 0.0 0.2
02:21 10.3 10.2 99 1024.6 6.0 WSW 7.6 0.0 0.2
02:22 10.3 10.2 99 1024.4 6.0 WSW 7.6 0.0 0.2
02:23 10.3 10.2 99 1024.4 6.9 WSW 7.6 0.0 0.2
02:24 10.3 10.2 99 1024.5 7.6 S 7.6 0.0 0.2
02:25 10.3 10.2 99 1024.6 6.0 S 7.6 0.0 0.2
02:26 10.3 10.2 99 1024.5 6.0 S 7.6 0.0 0.2
02:28 10.3 10.2 99 1024.4 6.0 WSW 7.6 0.0 0.2
02:29 10.3 10.2 99 1024.5 7.6 WSW 7.6 0.0 0.2
02:30 10.3 10.2 99 1024.5 5.4 WSW 7.6 0.0 0.2
02:31 10.3 10.2 99 1024.5 6.0 WSW 7.6 0.0 0.2
02:31 10.3 10.2 99 1024.5 6.0 WSW 7.6 0.0 0.2
02:31 10.3 10.2 99 1024.5 6.0 WSW 7.6 0.0 0.2
02:31 10.3 10.2 99 1024.5 6.0 WSW 7.6 0.0 0.2
02:31 10.3 10.2 99 1024.5 6.0 WSW 7.6 0.0 0.2
02:31 10.3 10.2 99 1024.5 6.0 WSW 7.6 0.0 0.2
02:31 10.3 10.2 99 1024.5 6.0 WSW 7.6 0.0 0.2
02:31 10.3 10.2 99 1024.5 6.0 WSW 7.6 0.0 0.2
02:31 10.3 10.2 99 1024.5 6.0 WSW 7.6 0.0 0.2
02:31 10.3 10.2 99 1024.5 6.0 WSW 7.6 0.0 0.2
02:31 10.3 10.2 99 1024.5 6.0 WSW 7.6 0.0 0.2
02:31 10.3 10.2 99 1024.5 6.0 WSW 7.6 0.0 0.2
02:31 10.3 10.2 99 1024.5 6.0 WSW 7.6 0.0 0.2
02:31 10.3 10.2 99 1024.5 6.0 WSW 7.6 0.0 0.2
02:31 10.3 10.2 99 1024.5 6.0 WSW 7.6 0.0 0.2
02:31 10.3 10.2 99 1024.5 6.0 WSW 7.6 0.0 0.2
02:31 10.3 10.2 99 1024.5 8.3 WSW 8.3 0.0 0.2
02:47 10.4 10.3 99 1024.5 6.0 WSW 8.3 0.0 0.2
02:48 10.4 10.3 99 1024.6 6.0 S 8.3 0.0 0.2
02:50 10.4 10.3 99 1024.5 6.0 WSW 8.3 0.0 0.2
02:51 10.4 10.3 99 1024.5 9.2 WSW 9.2 0.0 0.2
02:52 10.4 10.3 99 1024.5 6.9 WSW 9.2 0.0 0.2
02:53 10.4 10.3 99 1024.5 7.6 WSW 9.2 0.0 0.2
02:54 10.4 10.3 99 1024.4 6.0 WSW 9.2 0.0 0.2
02:55 10.4 10.3 99 1024.4 6.0 S 9.2 0.0 0.2
02:56 10.4 10.3 99 1024.4 6.9 WSW 9.2 0.0 0.2
02:57 10.5 10.4 99 1024.4 8.3 WSW 9.2 0.0 0.2
02:58 10.5 10.4 99 1024.4 7.6 S 9.2 0.0 0.2
02:59 10.4 10.3 99 1024.5 7.6 WSW 9.2 0.0 0.2
03:00 10.5 10.4 99 1024.4 6.9 S 9.2 0.0 0.2
03:01 10.5 10.4 99 1024.3 5.4 S 8.3 0.0 0.2
03:02 10.5 10.4 99 1024.3 5.4 S 8.3 0.0 0.2
03:03 10.5 10.4 99 1024.3 7.6 WSW 8.3 0.0 0.2
03:04 10.5 10.4 99 1024.5 6.9 WSW 8.3 0.0 0.2
03:05 10.5 10.4 99 1024.4 6.9 WSW 8.3 0.0 0.2
03:05 10.5 10.4 99 1024.4 6.9 WSW 8.3 0.0 0.2
03:07 10.5 10.4 99 1024.3 6.9 WSW 7.6 0.0 0.2
03:08 10.5 10.4 99 1024.3 6.9 WSW 7.6 0.0 0.2
03:09 10.5 10.4 99 1024.4 6.9 WSW 7.6 0.0 0.2
03:10 10.5 10.4 99 1024.3 5.4 WSW 7.6 0.0 0.2
03:10 10.5 10.4 99 1024.3 5.4 WSW 7.6 0.0 0.2
03:11 10.6 10.5 99 1024.3 6.9 WSW 7.6 0.0 0.2
03:12 10.5 10.4 99 1024.3 5.4 S 7.6 0.0 0.2
03:13 10.5 10.4 99 1024.3 6.9 S 7.6 0.0 0.2
03:15 10.5 10.4 99 1024.2 4.5 S 6.9 0.0 0.2
03:16 10.5 10.4 99 1024.2 5.4 WSW 6.9 0.0 0.2
03:17 10.5 10.4 99 1024.2 4.5 WSW 6.9 0.0 0.2
03:18 10.5 10.4 99 1024.2 5.4 S 6.9 0.0 0.2
03:19 10.5 10.4 99 1024.3 5.4 S 6.9 0.0 0.2
03:20 10.5 10.4 99 1024.2 6.0 WSW 6.9 0.0 0.2
03:21 10.5 10.4 99 1024.3 5.4 S 6.9 0.0 0.2
03:22 10.5 10.4 99 1024.2 5.4 S 6.9 0.0 0.2
03:23 10.5 10.4 99 1024.3 4.5 S 6.9 0.0 0.2
03:24 10.5 10.4 99 1024.2 5.4 WSW 6.9 0.0 0.2
03:25 10.5 10.4 99 1024.3 5.4 S 6.9 0.0 0.2
03:26 10.5 10.4 99 1024.3 3.8 S 6.9 0.0 0.2
03:27 10.5 10.4 99 1024.2 3.8 S 6.9 0.0 0.2
03:28 10.5 10.4 99 1024.2 4.5 WSW 6.9 0.0 0.2
03:29 10.5 10.4 99 1024.3 3.8 S 6.9 0.0 0.2
03:30 10.5 10.4 99 1024.2 4.5 WSW 6.9 0.0 0.2
03:31 10.5 10.4 99 1024.2 5.4 WSW 5.4 0.0 0.2
03:32 10.5 10.4 99 1024.3 3.1 WSW 5.4 0.0 0.2
03:32 10.5 10.4 99 1024.3 3.1 WSW 5.4 0.0 0.2
03:33 10.5 10.4 99 1024.2 3.8 WSW 5.4 0.0 0.2
03:34 10.5 10.4 99 1024.3 3.1 WSW 5.4 0.0 0.2
03:35 10.4 10.3 99 1024.4 3.8 WSW 5.4 0.0 0.2
03:37 10.4 10.3 99 1024.2 3.8 WSW 5.4 0.0 0.2
03:38 10.4 10.3 99 1024.2 3.8 WSW 5.4 0.0 0.2
03:39 10.4 10.3 99 1024.3 3.1 WSW 5.4 0.0 0.2
03:40 10.4 10.3 99 1024.2 3.1 WSW 5.4 0.0 0.2
03:41 10.4 10.3 99 1024.3 4.5 WSW 5.4 0.0 0.2
03:42 10.4 10.3 99 1024.3 3.1 WSW 4.5 0.0 0.2
03:43 10.4 10.3 99 1024.3 2.2 WSW 4.5 0.0 0.2
03:44 10.4 10.3 99 1024.2 1.6 WSW 4.5 0.0 0.2
03:45 10.4 10.3 99 1024.3 2.2 WSW 4.5 0.0 0.2
03:46 10.4 10.3 99 1024.3 2.2 WSW 4.5 0.0 0.2
03:47 10.4 10.3 99 1024.4 2.2 WSW 4.5 0.0 0.2
03:48 10.4 10.3 99 1024.3 4.5 W 4.5 0.0 0.2
03:49 10.4 10.3 99 1024.4 3.1 W 4.5 0.0 0.2
03:50 10.4 10.3 99 1024.4 3.8 W 4.5 0.0 0.2
03:51 10.4 10.3 99 1024.4 3.8 W 4.5 0.0 0.2
03:52 10.4 10.3 99 1024.4 3.1 W 4.5 0.0 0.2
03:53 10.4 10.3 99 1024.4 2.2 W 4.5 0.0 0.2
03:53 10.4 10.3 99 1024.4 2.2 W 4.5 0.0 0.2
03:54 10.4 10.3 99 1024.4 3.8 S 4.5 0.0 0.2
03:55 10.4 10.3 99 1024.5 2.2 S 4.5 0.0 0.2
03:57 10.5 10.4 99 1024.3 1.6 S 4.5 0.0 0.2
03:58 10.4 10.3 99 1024.2 1.6 S 4.5 0.0 0.2
03:59 10.4 10.3 99 1024.3 1.6 S 4.5 0.0 0.2
04:00 10.4 10.3 99 1024.3 2.2 S 4.5 0.0 0.2
04:01 10.4 10.3 99 1024.3 3.1 S 4.5 0.0 0.2
04:02 10.4 10.3 99 1024.3 3.1 S 4.5 0.0 0.2
04:03 10.4 10.3 99 1024.4 2.2 S 4.5 0.0 0.2
04:04 10.4 10.3 99 1024.3 3.1 S 4.5 0.0 0.2
04:05 10.4 10.3 99 1024.4 2.2 S 3.1 0.0 0.2
04:05 10.4 10.3 99 1024.4 2.2 S 3.1 0.0 0.2
04:07 10.4 10.3 99 1024.3 2.2 S 3.1 0.0 0.2
04:07 10.4 10.3 99 1024.3 2.2 S 3.1 0.0 0.2
04:09 10.4 10.3 99 1024.3 2.2 S 3.1 0.0 0.2
04:10 10.4 10.3 99 1024.3 2.2 S 3.1 0.0 0.2
04:11 10.5 10.4 99 1024.3 4.5 S 4.5 0.0 0.2
04:12 10.5 10.4 99 1024.2 2.2 S 4.5 0.0 0.2
04:13 10.5 10.4 99 1024.2 3.1 S 4.5 0.0 0.2
04:14 10.4 10.3 99 1024.2 2.2 S 4.5 0.0 0.2
04:15 10.4 10.3 99 1024.3 3.8 S 4.5 0.0 0.2
04:16 10.5 10.4 99 1024.4 3.1 S 4.5 0.0 0.2
04:17 10.5 10.4 99 1024.2 2.2 S 4.5 0.0 0.2
04:18 10.5 10.4 99 1024.2 2.2 S 4.5 0.0 0.2
04:19 10.5 10.4 99 1024.3 1.6 S 4.5 0.0 0.2
04:20 10.5 10.4 99 1024.3 1.6 S 4.5 0.0 0.2
04:21 10.5 10.4 99 1024.2 1.6 S 3.8 0.0 0.2
04:22 10.5 10.4 99 1024.2 1.6 S 3.8 0.0 0.2
04:23 10.5 10.4 99 1024.3 0.7 S 3.8 0.0 0.2
04:24 10.4 10.3 99 1024.2 1.6 S 3.8 0.0 0.2
04:25 10.4 10.3 99 1024.3 2.2 S 3.1 0.0 0.2
04:25 10.4 10.3 99 1024.3 2.2 S 3.1 0.0 0.2
04:26 10.4 10.3 99 1024.3 1.6 S 3.1 0.0 0.2
04:27 10.4 10.3 99 1024.4 1.6 S 2.2 0.0 0.2
04:28 10.4 10.3 99 1024.2 0.7 S 2.2 0.0 0.2
04:30 10.4 10.3 99 1024.2 1.6 S 2.2 0.0 0.2
04:31 10.4 10.3 99 1024.1 1.6 S 2.2 0.0 0.2
04:32 10.4 10.3 99 1024.3 1.6 S 2.2 0.0 0.2
04:33 10.4 10.3 99 1024.3 1.6 S 2.2 0.0 0.2
04:34 10.4 10.3 99 1024.2 1.6 S 2.2 0.0 0.2
04:35 10.4 10.3 99 1024.3 1.6 S 2.2 0.0 0.2
04:36 10.4 10.3 99 1024.4 2.2 S 2.2 0.0 0.2
04:37 10.4 10.3 99 1024.2 1.6 S 2.2 0.0 0.2
04:38 10.3 10.2 99 1024.2 1.6 S 2.2 0.0 0.2
04:39 10.3 10.2 99 1024.2 0.7 S 2.2 0.0 0.2
04:40 10.3 10.2 99 1024.2 1.6 S 2.2 0.0 0.2
04:41 10.3 10.2 99 1024.2 1.6 S 2.2 0.0 0.2
04:42 10.3 10.2 99 1024.3 1.6 S 2.2 0.0 0.2
04:43 10.3 10.2 99 1024.3 2.2 S 2.2 0.0 0.2
04:44 10.3 10.2 99 1024.2 1.6 S 2.2 0.0 0.2
04:45 10.3 10.2 99 1024.2 1.6 S 2.2 0.0 0.2
04:45 10.3 10.2 99 1024.2 1.6 S 2.2 0.0 0.2
04:46 10.3 10.2 99 1024.3 0.7 S 2.2 0.0 0.2
04:47 10.2 10.1 99 1024.2 0.0 S 2.2 0.0 0.2
04:48 10.3 10.2 99 1024.3 0.7 S 2.2 0.0 0.2
04:49 10.3 10.2 99 1024.1 0.7 S 2.2 0.0 0.2
04:51 10.2 10.1 99 1024.3 1.6 S 2.2 0.0 0.2
04:52 10.2 10.1 99 1024.4 3.1 W 3.8 0.0 0.2
04:53 10.2 10.1 99 1024.3 3.8 W 3.8 0.0 0.2
04:54 10.2 10.1 99 1024.2 3.8 W 3.8 0.0 0.2
04:55 10.2 10.1 99 1024.2 3.8 W 3.8 0.0 0.2
04:56 10.3 10.2 99 1024.3 1.6 W 3.8 0.0 0.2
04:57 10.2 10.1 99 1024.1 2.2 W 3.8 0.0 0.2
04:58 10.2 10.1 99 1024.1 2.2 W 3.8 0.0 0.2
04:59 10.2 10.1 99 1024.1 4.5 WSW 4.5 0.0 0.2
05:00 10.3 10.2 99 1024.2 3.1 WSW 4.5 0.0 0.2
05:01 10.3 10.2 99 1024.2 3.1 WSW 4.5 0.0 0.2
05:02 10.3 10.2 99 1024.3 2.2 WSW 4.5 0.0 0.2
05:03 10.3 10.2 99 1024.3 2.2 WSW 4.5 0.0 0.2
05:04 10.3 10.2 99 1024.1 1.6 WSW 4.5 0.0 0.2
05:05 10.3 10.2 99 1024.2 1.6 WSW 4.5 0.0 0.2
05:05 10.3 10.2 99 1024.2 1.6 WSW 4.5 0.0 0.2
05:07 10.3 10.2 99 1024.2 1.6 WSW 4.5 0.0 0.2
05:07 10.3 10.2 99 1024.2 1.6 WSW 4.5 0.0 0.2
05:09 10.3 10.2 99 1024.1 1.6 WSW 3.1 0.0 0.2
05:10 10.3 10.2 99 1024.2 1.6 WSW 3.1 0.0 0.2
05:11 10.3 10.2 99 1024.4 1.6 WSW 2.2 0.0 0.2
05:12 10.3 10.2 99 1024.2 1.6 WSW 2.2 0.0 0.2
05:12 10.3 10.2 99 1024.2 1.6 WSW 2.2 0.0 0.2
05:13 10.3 10.2 99 1024.2 1.6 WSW 2.2 0.0 0.2
05:14 10.1 10.0 99 1024.3 1.6 S 1.6 0.0 0.2
05:15 10.1 10.0 99 1024.3 0.7 S 1.6 0.0 0.2
05:16 10.1 10.0 99 1024.2 0.7 S 1.6 0.0 0.2
05:18 10.1 10.0 99 1024.3 1.6 S 1.6 0.0 0.2
05:19 10.1 10.0 99 1024.4 0.7 S 1.6 0.0 0.2
05:20 10.1 10.0 99 1024.3 0.7 S 1.6 0.0 0.2
05:21 10.0 9.9 99 1024.4 1.6 S 1.6 0.0 0.2
05:22 10.0 9.9 99 1024.3 0.7 S 1.6 0.0 0.2
05:23 10.0 9.9 99 1024.3 0.7 S 1.6 0.0 0.2
05:24 10.0 9.9 99 1024.4 0.7 S 1.6 0.0 0.2
05:25 10.0 9.9 99 1024.4 0.7 S 1.6 0.0 0.2
05:26 10.0 9.9 99 1024.6 0.7 S 1.6 0.0 0.2
05:27 10.0 9.9 99 1024.5 0.7 S 1.6 0.0 0.2
05:28 10.0 9.9 99 1024.5 1.6 S 1.6 0.0 0.2
05:29 10.0 9.9 99 1024.4 1.6 S 1.6 0.0 0.2
05:30 9.9 9.8 99 1024.4 1.6 S 1.6 0.0 0.2
05:31 9.9 9.8 99 1024.6 1.6 S 1.6 0.0 0.2
05:32 9.9 9.8 99 1024.5 1.6 S 1.6 0.0 0.2
05:33 9.9 9.8 99 1024.5 2.2 S 2.2 0.0 0.2
05:33 9.9 9.8 99 1024.5 2.2 S 2.2 0.0 0.2
05:34 9.9 9.8 99 1024.4 3.1 S 3.1 0.0 0.2
05:35 9.8 9.7 99 1024.4 3.1 S 3.1 0.0 0.2
05:36 9.8 9.7 99 1024.7 3.1 S 3.1 0.0 0.2
05:38 9.8 9.7 99 1024.6 2.2 S 3.1 0.0 0.2
05:39 9.8 9.7 99 1024.6 1.6 S 3.1 0.0 0.2
05:40 9.8 9.7 99 1024.6 1.6 S 3.1 0.0 0.2
05:41 9.7 9.6 99 1024.6 0.7 S 3.1 0.0 0.2
05:42 9.8 9.7 99 1024.6 0.0 S 3.1 0.0 0.2
05:43 9.7 9.6 99 1024.5 0.7 S 3.1 0.0 0.2
05:44 9.7 9.6 99 1024.6 0.0 S 3.1 0.0 0.2
05:45 9.7 9.6 99 1024.5 0.0 S 3.1 0.0 0.2
05:46 9.7 9.6 99 1024.6 0.7 S 3.1 0.0 0.2
05:47 9.7 9.6 99 1024.6 0.7 S 2.2 0.0 0.2
05:48 9.7 9.6 99 1024.4 0.0 S 2.2 0.0 0.2
05:49 9.7 9.6 99 1024.5 0.7 S 1.6 0.0 0.2
05:50 9.7 9.6 99 1024.5 0.7 S 0.7 0.0 0.2
05:51 9.7 9.6 99 1024.5 0.0 S 0.7 0.0 0.2
05:52 9.7 9.6 99 1024.5 0.0 S 0.7 0.0 0.2
05:53 9.7 9.6 99 1024.4 0.7 S 0.7 0.0 0.2
05:54 9.7 9.6 99 1024.4 0.0 S 0.7 0.0 0.2
05:54 9.7 9.6 99 1024.4 0.0 S 0.7 0.0 0.2
05:55 9.7 9.6 99 1024.5 0.7 S 0.7 0.0 0.2
05:56 9.7 9.6 99 1024.4 0.0 S 0.7 0.0 0.2
05:57 9.7 9.6 99 1024.5 1.6 S 1.6 0.0 0.2
05:59 9.6 9.5 99 1024.4 1.6 S 1.6 0.0 0.2
06:00 9.6 9.5 99 1024.5 1.6 S 1.6 0.0 0.2
06:01 9.6 9.5 99 1024.4 1.6 S 1.6 0.0 0.2
06:02 9.6 9.5 99 1024.5 1.6 S 1.6 0.0 0.2
06:03 9.6 9.5 99 1024.5 1.6 S 1.6 0.0 0.2
06:04 9.6 9.5 99 1024.6 1.6 S 1.6 0.0 0.2
06:05 9.6 9.5 99 1024.6 1.6 S 1.6 0.0 0.2
06:06 9.6 9.5 99 1024.6 1.6 S 1.6 0.0 0.2
06:06 9.6 9.5 99 1024.6 1.6 S 1.6 0.0 0.2
06:08 9.6 9.5 99 1024.6 1.6 S 1.6 0.0 0.2
06:08 9.6 9.5 99 1024.6 1.6 S 1.6 0.0 0.2
06:09 9.5 9.4 99 1024.6 0.7 S 1.6 0.0 0.2
06:11 9.5 9.4 99 1024.6 0.7 S 1.6 0.0 0.2
06:12 9.5 9.4 99 1024.5 0.7 S 1.6 0.0 0.2
06:13 9.5 9.4 99 1024.5 0.7 S 1.6 0.0 0.2
06:14 9.4 9.3 99 1024.6 0.7 S 1.6 0.0 0.2
06:15 9.4 9.3 99 1024.5 0.7 S 1.6 0.0 0.2
06:16 9.4 9.3 99 1024.5 0.0 S 1.6 0.0 0.2
06:17 9.3 9.2 99 1024.4 0.0 S 1.6 0.0 0.2
06:18 9.3 9.2 99 1024.5 0.7 S 0.7 0.0 0.2
06:19 9.3 9.2 99 1024.6 0.0 S 0.7 0.0 0.2
06:20 9.3 9.2 99 1024.5 0.0 S 0.7 0.0 0.2
06:20 9.3 9.2 99 1024.5 0.0 S 0.7 0.0 0.2
06:21 9.3 9.2 99 1024.5 0.0 S 0.7 0.0 0.2
06:22 9.2 9.1 99 1024.5 0.0 S 0.7 0.0 0.2
06:23 9.3 9.2 99 1024.5 0.0 S 0.7 0.0 0.2
06:25 9.3 9.2 99 1024.5 0.0 S 0.7 0.0 0.2
06:26 9.3 9.2 99 1024.4 0.0 S 0.7 0.0 0.2
06:27 9.2 9.1 99 1024.5 0.0 S 0.7 0.0 0.2
06:28 9.2 9.1 99 1024.5 0.0 S 0.7 0.0 0.2
06:29 9.2 9.1 99 1024.5 0.0 S 0.7 0.0 0.2
06:30 9.2 9.1 99 1024.5 0.7 S 0.7 0.0 0.2
06:31 9.2 9.1 99 1024.4 1.6 S 1.6 0.0 0.2
06:32 9.1 9.0 99 1024.5 0.7 S 1.6 0.0 0.2
06:33 9.1 9.0 99 1024.5 1.6 S 1.6 0.0 0.2
06:34 9.1 9.0 99 1024.4 1.6 S 1.6 0.0 0.2
06:35 9.1 9.0 99 1024.4 0.7 S 1.6 0.0 0.2
06:36 9.0 8.9 99 1024.6 0.7 S 1.6 0.0 0.2
06:37 9.0 8.9 99 1024.4 0.7 S 1.6 0.0 0.2
06:37 9.0 8.9 99 1024.4 0.7 S 1.6 0.0 0.2
06:38 9.0 8.9 99 1024.5 0.7 S 1.6 0.0 0.2
06:39 9.0 8.9 99 1024.4 0.7 S 1.6 0.0 0.2
06:40 9.0 8.9 99 1024.4 0.0 S 1.6 0.0 0.2
06:42 8.9 8.8 99 1024.5 0.7 S 1.6 0.0 0.2
06:43 8.9 8.8 99 1024.3 0.7 S 1.6 0.0 0.2
06:44 8.9 8.8 99 1024.5 0.7 S 1.6 0.0 0.2
06:45 8.9 8.8 99 1024.5 0.7 S 0.7 0.0 0.2
06:46 8.9 8.8 99 1024.3 0.7 S 0.7 0.0 0.2
06:47 8.9 8.8 99 1024.5 0.0 S 0.7 0.0 0.2
06:48 8.9 8.8 99 1024.4 0.7 S 0.7 0.0 0.2
06:49 8.9 8.8 99 1024.4 0.7 S 0.7 0.0 0.2
06:50 8.9 8.8 99 1024.4 0.7 S 0.7 0.0 0.2
06:51 8.9 8.8 99 1024.5 0.0 S 0.7 0.0 0.2
06:52 8.9 8.8 99 1024.6 0.0 S 0.7 0.0 0.2
06:53 8.9 8.8 99 1024.4 0.7 S 0.7 0.0 0.2
06:54 8.9 8.8 99 1024.5 0.0 S 0.7 0.0 0.2
06:55 8.9 8.8 99 1024.4 0.0 S 0.7 0.0 0.2
06:56 8.9 8.8 99 1024.4 0.7 S 0.7 0.0 0.2
06:57 8.9 8.8 99 1024.7 0.0 S 0.7 0.0 0.2
06:58 8.9 8.8 99 1024.6 0.0 S 0.7 0.0 0.2
06:59 8.9 8.8 99 1024.6 0.7 S 0.7 0.0 0.2
07:00 8.9 8.8 99 1024.6 0.7 S 0.7 0.0 0.2
07:01 8.9 8.8 99 1024.6 0.7 S 0.7 0.0 0.2
07:02 8.9 8.8 99 1024.7 0.7 S 0.7 0.0 0.2
07:03 8.9 8.8 99 1024.7 0.7 S 0.7 0.0 0.2
07:04 8.9 8.8 99 1024.8 0.7 S 0.7 0.0 0.2
07:04 8.9 8.8 99 1024.8 0.7 S 0.7 0.0 0.2
07:05 8.9 8.8 99 1024.8 0.7 S 0.7 0.0 0.2
07:07 8.9 8.8 99 1024.8 0.7 S 0.7 0.0 0.2
07:07 8.9 8.8 99 1024.8 0.7 S 0.7 0.0 0.2
07:08 8.9 8.8 99 1024.8 0.7 S 0.7 0.0 0.2
07:10 8.9 8.8 99 1024.7 1.6 S 1.6 0.0 0.2
07:10 8.9 8.8 99 1024.7 1.6 S 1.6 0.0 0.2
07:11 8.9 8.8 99 1024.7 0.7 S 1.6 0.0 0.2
07:12 8.9 8.8 99 1024.7 0.7 S 1.6 0.0 0.2
07:13 8.9 8.8 99 1024.7 0.7 S 1.6 0.0 0.2
07:14 9.0 8.9 99 1024.8 0.7 S 1.6 0.0 0.2
07:15 8.9 8.8 99 1024.8 0.7 S 1.6 0.0 0.2
07:16 8.9 8.8 99 1024.8 0.7 S 1.6 0.0 0.2
07:17 8.9 8.8 99 1024.8 0.7 S 1.6 0.0 0.2
07:18 9.0 8.9 99 1024.8 0.7 S 1.6 0.0 0.2
07:19 9.0 8.9 99 1024.7 1.6 S 1.6 0.0 0.2
07:20 8.9 8.8 99 1024.7 0.7 S 1.6 0.0 0.2
07:21 9.0 8.9 99 1024.7 1.6 S 1.6 0.0 0.2
07:22 9.0 8.9 99 1024.7 2.2 S 2.2 0.0 0.2
07:23 9.0 8.9 99 1024.7 2.2 S 2.2 0.0 0.2
07:24 9.0 8.9 99 1024.7 2.2 S 2.2 0.0 0.2
07:25 9.0 8.9 99 1024.8 1.6 S 2.2 0.0 0.2
07:26 9.0 8.9 99 1024.8 1.6 S 2.2 0.0 0.2
07:28 9.1 9.0 99 1024.7 0.7 S 2.2 0.0 0.2
07:29 9.1 9.0 99 1024.6 0.0 S 2.2 0.0 0.2
07:30 9.1 9.0 99 1024.6 0.0 S 2.2 0.0 0.2
07:31 9.1 9.0 99 1024.7 0.0 S 2.2 0.0 0.2
07:32 9.1 9.0 99 1024.7 0.0 NE 2.2 0.0 0.2
07:33 9.1 9.0 99 1024.7 0.0 NE 2.2 0.0 0.2
07:34 9.0 8.9 99 1024.7 0.0 NE 2.2 0.0 0.2
07:35 9.0 8.9 99 1024.7 0.0 NE 2.2 0.0 0.2
07:36 9.0 8.9 99 1024.7 0.7 NE 1.6 0.0 0.2
07:37 9.0 8.9 99 1024.8 0.7 NE 1.6 0.0 0.2
07:38 9.0 8.9 99 1024.8 1.6 NE 1.6 0.0 0.2
07:39 9.0 8.9 99 1024.7 0.7 NE 1.6 0.0 0.2
07:40 9.0 8.9 99 1024.6 0.7 NE 1.6 0.0 0.2
07:41 9.0 8.9 99 1024.7 0.7 NE 1.6 0.0 0.2
07:42 9.0 8.9 99 1024.7 0.7 NE 1.6 0.0 0.2
07:43 9.0 8.9 99 1024.7 0.7 NE 1.6 0.0 0.2
07:44 9.0 8.9 99 1024.7 1.6 NE 1.6 0.0 0.2
07:45 9.0 8.9 99 1024.7 0.7 NE 1.6 0.0 0.2
07:46 9.0 8.9 99 1024.7 0.7 NE 1.6 0.0 0.2
07:47 9.0 8.9 99 1024.8 0.7 NE 1.6 0.0 0.2
07:48 9.0 8.9 99 1024.7 0.7 NE 1.6 0.0 0.2
07:49 9.0 8.9 99 1024.7 0.7 NE 1.6 0.0 0.2
07:50 9.0 8.9 99 1024.6 0.0 NE 1.6 0.0 0.2
07:51 9.0 8.9 99 1024.7 0.0 NE 1.6 0.0 0.2
07:52 9.0 8.9 99 1024.7 0.7 NE 1.6 0.0 0.2
07:53 9.0 8.9 99 1024.7 0.7 NE 1.6 0.0 0.2
07:54 9.0 8.9 99 1024.6 0.7 NE 0.7 0.0 0.2
07:55 9.0 8.9 99 1024.7 0.7 NE 0.7 0.0 0.2
07:56 9.1 9.0 99 1024.7 0.7 NE 0.7 0.0 0.2
07:57 9.1 9.0 99 1024.7 0.7 NE 0.7 0.0 0.2
07:57 9.1 9.0 99 1024.7 0.7 NE 0.7 0.0 0.2
07:59 9.1 9.0 99 1024.8 0.7 NE 0.7 0.0 0.2
07:59 9.1 9.0 99 1024.8 0.7 NE 0.7 0.0 0.2
08:00 9.1 9.0 99 1024.8 0.0 NE 0.7 0.0 0.2
08:01 9.1 9.0 99 1024.9 0.0 NE 0.7 0.0 0.2
08:03 9.1 9.0 99 1024.8 0.0 NE 0.7 0.0 0.2
08:04 9.1 9.0 99 1024.8 0.0 NE 0.7 0.0 0.2
08:05 9.1 9.0 99 1024.8 0.0 NE 0.7 0.0 0.2
08:06 9.1 9.0 99 1025.0 0.0 NE 0.7 0.0 0.2
08:07 9.1 9.0 99 1025.0 0.0 NE 0.7 0.0 0.2
08:07 9.1 9.0 99 1025.0 0.0 NE 0.7 0.0 0.2
08:09 9.1 9.0 99 1025.0 0.0 NE 0.7 0.0 0.2
08:10 9.2 9.1 99 1024.9 0.0 NE 0.0 0.0 0.2
08:10 9.2 9.1 99 1024.9 0.0 NE 0.0 0.0 0.2
08:11 9.1 9.0 99 1024.9 0.0 NE 0.0 0.0 0.2
08:13 9.2 9.1 99 1024.9 0.7 NE 0.7 0.0 0.2
08:14 9.1 9.0 99 1024.9 0.0 NE 0.7 0.0 0.2
08:14 9.1 9.0 99 1024.9 0.0 NE 0.7 0.0 0.2
08:15 9.1 9.0 99 1024.9 0.0 NE 0.7 0.0 0.2
08:16 9.1 9.0 99 1024.9 0.0 NE 0.7 0.0 0.2
08:17 9.2 9.1 99 1025.1 0.0 NE 0.7 0.0 0.2
08:18 9.1 9.0 99 1025.1 0.0 NE 0.7 0.0 0.2
08:19 9.2 9.1 99 1025.1 0.0 NE 0.7 0.0 0.2
08:20 9.2 9.1 99 1025.0 0.0 NE 0.7 0.0 0.2
08:21 9.2 9.1 99 1024.9 0.0 NE 0.7 0.0 0.2
08:23 9.2 9.1 99 1024.9 0.7 NE 0.7 0.0 0.2
08:24 9.2 9.1 99 1025.1 0.7 NE 0.7 0.0 0.2
08:25 9.2 9.1 99 1025.0 0.7 NE 0.7 0.0 0.2
08:26 9.2 9.1 99 1025.0 0.7 NE 0.7 0.0 0.2
08:27 9.2 9.1 99 1025.0 0.0 NE 0.7 0.0 0.2
08:28 9.2 9.1 99 1024.9 0.7 NE 0.7 0.0 0.2
08:29 9.2 9.1 99 1024.9 0.7 NE 0.7 0.0 0.2
08:30 9.2 9.1 99 1024.9 0.7 NE 0.7 0.0 0.2
08:31 9.3 9.2 99 1024.9 0.7 NE 0.7 0.0 0.2
08:32 9.3 9.2 99 1025.0 0.7 NE 0.7 0.0 0.2
08:33 9.3 9.2 99 1025.0 0.0 NE 0.7 0.0 0.2
08:34 9.3 9.2 99 1025.0 0.0 NE 0.7 0.0 0.2
08:35 9.3 9.2 99 1024.9 0.7 NE 0.7 0.0 0.2
08:36 9.3 9.2 99 1024.9 0.0 NE 0.7 0.0 0.2
08:37 9.3 9.2 99 1025.0 0.0 NE 0.7 0.0 0.2
08:38 9.3 9.2 99 1025.1 0.7 NE 0.7 0.0 0.2
08:39 9.3 9.2 99 1024.9 0.0 NE 0.7 0.0 0.2
08:40 9.3 9.2 99 1025.0 0.7 NE 0.7 0.0 0.2
08:41 9.3 9.2 99 1024.9 0.0 NE 0.7 0.0 0.2
08:42 9.3 9.2 99 1025.1 0.0 NE 0.7 0.0 0.2
08:42 9.3 9.2 99 1025.1 0.0 NE 0.7 0.0 0.2
08:43 9.3 9.2 99 1024.9 0.0 NE 0.7 0.0 0.2
08:44 9.3 9.2 99 1025.1 0.0 NE 0.7 0.0 0.2
08:45 9.3 9.2 99 1025.0 0.7 NE 0.7 0.0 0.2
08:46 9.3 9.2 99 1025.1 0.7 NE 0.7 0.0 0.2
08:47 9.3 9.2 99 1025.2 0.7 NE 0.7 0.0 0.2
08:48 9.3 9.2 99 1025.0 0.0 NE 0.7 0.0 0.2
08:49 9.3 9.2 99 1025.1 0.0 NE 0.7 0.0 0.2
08:50 9.3 9.2 99 1024.9 1.6 NE 1.6 0.0 0.2
08:51 9.3 9.2 99 1025.0 1.6 NE 1.6 0.0 0.2
08:52 9.3 9.2 99 1025.2 0.7 NE 1.6 0.0 0.2
08:53 9.3 9.2 99 1025.0 0.7 NE 1.6 0.0 0.2
08:55 9.4 9.3 99 1025.0 1.6 NE 1.6 0.0 0.2
08:56 9.4 9.3 99 1025.2 1.6 NE 1.6 0.0 0.2
08:57 9.4 9.3 99 1025.1 1.6 NE 1.6 0.0 0.2
08:58 9.4 9.3 99 1025.1 0.7 NE 1.6 0.0 0.2
08:59 9.4 9.3 99 1025.2 0.7 NE 1.6 0.0 0.2
09:00 9.4 9.3 99 1025.1 0.7 NE 1.6 0.0 0.2
09:01 9.4 9.3 99 1025.1 1.6 NE 1.6 0.0 0.2
09:02 9.4 9.3 99 1025.1 1.6 NE 1.6 0.0 0.2
09:03 9.5 9.4 99 1024.9 0.7 NE 1.6 0.0 0.2
09:04 9.5 9.4 99 1025.0 0.7 NE 1.6 0.0 0.2
09:05 9.5 9.4 99 1025.0 0.7 NE 1.6 0.0 0.2
09:06 9.5 9.4 99 1025.0 0.7 NE 1.6 0.0 0.2
09:06 9.5 9.4 99 1025.0 0.7 NE 1.6 0.0 0.2
09:07 9.5 9.4 99 1025.1 0.0 NE 1.6 0.0 0.2
09:09 9.5 9.4 99 1025.1 0.0 NE 1.6 0.0 0.2
09:10 9.6 9.5 99 1024.8 0.0 NE 1.6 0.0 0.2
09:10 9.6 9.5 99 1024.8 0.0 NE 1.6 0.0 0.2
09:12 9.6 9.5 99 1024.9 0.0 NE 0.7 0.0 0.2
09:13 9.6 9.5 99 1025.0 0.0 NE 0.7 0.0 0.2
09:14 9.6 9.5 99 1025.1 0.0 NE 0.7 0.0 0.2
09:15 9.6 9.5 99 1025.0 0.0 NE 0.7 0.0 0.2
09:16 9.6 9.5 99 1025.0 0.7 NE 0.7 0.0 0.2
09:17 9.7 9.6 99 1025.0 0.7 NE 0.7 0.0 0.2
09:18 9.7 9.6 99 1025.0 0.7 NE 0.7 0.0 0.2
09:19 9.7 9.6 99 1025.0 0.7 NE 0.7 0.0 0.2
09:20 9.7 9.6 99 1025.0 0.7 NE 0.7 0.0 0.2
09:21 9.7 9.6 99 1025.0 0.7 NE 0.7 0.0 0.2
09:22 9.7 9.6 99 1025.2 0.7 NE 0.7 0.0 0.2
09:23 9.7 9.6 99 1025.0 0.0 NE 0.7 0.0 0.2
09:24 9.8 9.7 99 1025.2 0.0 NE 0.7 0.0 0.2
09:25 9.8 9.7 99 1025.2 0.0 NE 0.7 0.0 0.2
09:26 9.8 9.7 99 1025.2 0.0 NE 0.7 0.0 0.2
09:27 9.8 9.7 99 1025.1 0.0 NE 0.7 0.0 0.2
09:28 9.8 9.7 99 1025.2 0.7 NE 0.7 0.0 0.2
09:29 9.8 9.7 99 1025.1 1.6 NE 1.6 0.0 0.2
09:30 9.8 9.7 99 1025.1 1.6 NE 1.6 0.0 0.2
09:31 9.8 9.7 99 1025.2 0.0 NE 1.6 0.0 0.2
09:32 9.8 9.7 99 1025.0 0.0 NE 1.6 0.0 0.2
09:33 9.8 9.7 99 1025.0 1.6 NE 1.6 0.0 0.2
09:34 9.8 9.7 99 1025.2 1.6 NE 1.6 0.0 0.2
09:35 9.8 9.7 99 1025.2 0.7 NE 1.6 0.0 0.2
09:36 9.8 9.7 99 1025.3 0.7 NE 1.6 0.0 0.2
09:37 9.8 9.7 99 1025.2 0.7 NE 1.6 0.0 0.2
09:38 9.8 9.7 99 1025.2 0.7 NE 1.6 0.0 0.2
09:39 9.8 9.7 99 1025.2 0.7 NE 1.6 0.0 0.2
09:40 9.8 9.7 99 1025.1 0.7 NE 1.6 0.0 0.2
09:41 9.9 9.8 99 1025.3 1.6 NE 1.6 0.0 0.2
09:42 9.9 9.8 99 1025.3 1.6 NE 1.6 0.0 0.2
09:43 9.9 9.8 99 1025.2 1.6 NE 1.6 0.0 0.2
09:44 9.9 9.8 99 1025.2 0.7 NE 1.6 0.0 0.2
09:45 9.9 9.8 99 1025.2 0.7 NE 1.6 0.0 0.2
09:45 9.9 9.8 99 1025.2 0.7 NE 1.6 0.0 0.2
09:46 9.9 9.8 99 1025.1 0.7 NE 1.6 0.0 0.2
09:47 9.9 9.8 99 1025.3 0.7 NE 1.6 0.0 0.2
09:48 10.0 9.9 99 1025.2 0.7 NE 1.6 0.0 0.2
09:49 10.0 9.9 99 1025.2 0.0 NE 1.6 0.0 0.2
09:50 10.0 9.9 99 1025.1 0.7 NE 1.6 0.0 0.2
09:51 10.0 9.9 99 1025.2 0.7 NE 1.6 0.0 0.2
09:52 10.0 9.9 99 1025.1 0.0 NE 1.6 0.0 0.2
09:53 10.0 9.9 99 1025.0 0.7 NE 1.6 0.0 0.2
09:54 10.0 9.9 99 1025.0 1.6 NE 1.6 0.0 0.2
09:55 10.0 9.9 99 1025.1 1.6 NE 1.6 0.0 0.2
09:56 10.1 10.0 99 1025.2 0.7 NE 1.6 0.0 0.2
09:57 10.1 10.0 99 1025.2 0.7 NE 1.6 0.0 0.2
09:58 10.1 10.0 99 1025.1 0.7 NE 1.6 0.0 0.2
09:59 10.1 10.0 99 1025.1 0.7 NE 1.6 0.0 0.2
10:01 10.1 10.0 99 1025.0 2.2 NE 2.2 0.0 0.2
10:02 10.1 10.0 99 1025.1 1.6 NE 2.2 0.0 0.2
10:03 10.1 10.0 99 1025.0 1.6 NE 2.2 0.0 0.2
10:04 10.1 10.0 99 1024.9 1.6 NE 2.2 0.0 0.2
10:05 10.1 10.0 99 1024.9 1.6 NE 2.2 0.0 0.2
10:06 10.1 10.0 99 1025.0 1.6 NE 2.2 0.0 0.2
10:06 10.1 10.0 99 1025.0 1.6 NE 2.2 0.0 0.2
10:08 10.3 10.2 99 1024.9 1.6 NE 2.2 0.0 0.2
10:08 10.3 10.2 99 1024.9 1.6 NE 2.2 0.0 0.2
10:09 10.4 10.3 99 1024.9 3.1 NE 3.1 0.0 0.2
10:11 10.4 10.3 99 1025.0 2.2 NE 3.1 0.0 0.2
10:11 10.4 10.3 99 1025.0 2.2 NE 3.1 0.0 0.2
10:12 10.5 10.4 99 1024.9 3.1 NE 3.1 0.0 0.2
10:14 10.5 10.4 99 1025.1 3.1 E 3.1 0.0 0.2
10:15 10.5 10.4 99 1025.0 2.2 E 3.1 0.0 0.2
10:16 10.6 10.5 99 1025.0 3.1 SE 3.8 0.0 0.2
10:17 10.6 10.5 99 1025.0 2.2 SE 3.8 0.0 0.2
10:18 10.6 10.5 99 1025.2 3.1 SE 3.8 0.0 0.2
10:19 10.7 10.6 99 1025.0 3.1 SE 3.8 0.0 0.2
10:20 10.7 10.6 99 1025.1 3.1 SE 3.8 0.0 0.2
10:21 10.7 10.6 99 1025.1 3.1 SE 3.8 0.0 0.2
10:22 10.7 10.6 99 1025.1 2.2 SE 3.8 0.0 0.2
10:23 10.7 10.6 99 1025.1 1.6 SE 3.8 0.0 0.2
10:24 10.8 10.7 99 1025.1 1.6 SE 3.8 0.0 0.2
10:25 10.8 10.7 99 1025.0 2.2 SE 3.8 0.0 0.2
10:26 10.8 10.7 99 1025.1 2.2 SE 3.1 0.0 0.2
10:27 10.9 10.8 99 1025.0 2.2 SE 3.1 0.0 0.2
10:27 10.9 10.8 99 1025.0 2.2 SE 3.1 0.0 0.2
10:29 10.9 10.8 99 1025.0 2.2 SE 3.1 0.0 0.2
10:30 10.9 10.8 99 1025.2 2.2 SE 3.1 0.0 0.2
10:31 10.9 10.8 99 1025.1 1.6 SE 3.1 0.0 0.2
10:32 11.0 10.9 99 1025.1 2.2 SE 3.1 0.0 0.2
10:33 11.0 10.9 99 1025.1 2.2 SE 3.1 0.0 0.2
10:34 11.0 10.9 99 1025.1 3.1 SE 3.1 0.0 0.2
10:35 11.1 11.0 99 1025.0 3.1 SE 3.1 0.0 0.2
10:35 11.1 11.0 99 1025.0 3.1 SE 3.1 0.0 0.2
10:36 11.1 11.0 99 1025.1 2.2 SE 3.1 0.0 0.2
10:37 11.1 11.0 99 1025.2 3.1 SE 3.1 0.0 0.2
10:39 11.2 11.1 99 1025.1 3.1 SE 3.1 0.0 0.2
10:40 11.2 11.1 99 1025.1 3.1 SE 3.1 0.0 0.2
10:41 11.2 11.1 99 1025.0 4.5 S 4.5 0.0 0.2
10:42 11.2 11.1 99 1025.1 3.8 S 4.5 0.0 0.2
10:43 11.3 11.2 99 1025.1 4.5 S 4.5 0.0 0.2
10:44 11.3 11.2 99 1025.1 4.5 S 4.5 0.0 0.2
10:45 11.3 11.2 99 1025.1 4.5 S 4.5 0.0 0.2
10:46 11.3 11.2 99 1025.1 4.5 S 4.5 0.0 0.2
10:47 11.3 11.2 99 1025.0 5.4 S 5.4 0.0 0.2
10:48 11.3 11.2 99 1025.1 4.5 S 5.4 0.0 0.2
10:49 11.4 11.3 99 1025.1 5.4 S 5.4 0.0 0.2
10:50 11.4 11.3 99 1025.0 3.8 S 5.4 0.0 0.2
10:51 11.4 11.3 99 1024.9 4.5 S 5.4 0.0 0.2
10:52 11.4 11.3 99 1025.0 4.5 S 5.4 0.0 0.2
10:53 11.4 11.3 99 1025.0 3.1 S 5.4 0.0 0.2
10:54 11.5 11.4 99 1025.0 5.4 WSW 5.4 0.0 0.2
10:55 11.5 11.4 99 1024.9 6.0 S 6.0 0.0 0.2
10:56 11.5 11.4 99 1025.0 6.0 S 6.0 0.0 0.2
10:57 11.5 11.4 99 1024.9 5.4 S 6.0 0.0 0.2
10:58 11.6 11.5 99 1025.0 5.4 S 6.0 0.0 0.2
10:59 11.6 11.5 99 1025.0 4.5 S 6.0 0.0 0.2
10:59 11.6 11.5 99 1025.0 4.5 S 6.0 0.0 0.2
11:00 11.6 11.5 99 1024.9 5.4 S 6.0 0.0 0.2
11:01 11.6 11.5 99 1024.9 5.4 S 6.0 0.0 0.2
11:02 11.6 11.5 99 1025.0 5.4 S 6.0 0.0 0.2
11:03 11.6 11.5 99 1024.9 5.4 S 6.0 0.0 0.2
11:04 11.6 11.5 99 1024.9 5.4 S 6.0 0.0 0.2
11:05 11.6 11.5 99 1024.9 5.4 S 6.0 0.0 0.2
11:07 11.6 11.5 99 1025.0 5.4 S 6.0 0.0 0.2
11:07 11.6 11.5 99 1025.0 5.4 S 6.0 0.0 0.2
11:09 11.6 11.5 99 1024.8 5.4 S 6.0 0.0 0.2
11:10 11.6 11.5 99 1024.9 4.5 S 6.0 0.0 0.2
11:10 11.6 11.5 99 1024.9 4.5 S 6.0 0.0 0.2
11:11 11.7 11.6 99 1025.1 4.5 S 6.0 0.0 0.2
11:13 11.7 11.6 99 1024.9 5.4 S 6.0 0.0 0.2
11:14 11.7 11.6 99 1024.9 5.4 S 6.0 0.0 0.2
11:15 11.7 11.6 99 1024.8 5.4 S 6.0 0.0 0.2
11:16 11.7 11.6 99 1024.8 6.0 S 7.6 0.0 0.2
11:17 11.7 11.6 99 1024.9 5.4 S 7.6 0.0 0.2
11:18 11.7 11.6 99 1024.9 5.4 WSW 7.6 0.0 0.2
11:19 11.7 11.6 99 1024.9 6.0 S 7.6 0.0 0.2
11:20 11.7 11.6 99 1024.8 5.4 S 7.6 0.0 0.2
11:21 11.7 11.6 99 1024.9 4.5 S 7.6 0.0 0.2
11:22 11.8 11.7 99 1025.0 6.9 S 7.6 0.0 0.2
11:23 11.8 11.7 99 1024.8 5.4 S 7.6 0.0 0.2
11:24 11.8 11.7 99 1024.9 7.6 WSW 7.6 0.0 0.2
11:25 11.8 11.7 99 1024.8 6.9 S 7.6 0.0 0.2
11:26 11.8 11.7 99 1024.9 5.4 S 7.6 0.0 0.2
11:27 11.7 11.6 99 1024.8 6.9 S 7.6 0.0 0.2
11:28 11.7 11.6 99 1024.7 6.0 WSW 7.6 0.0 0.2
11:29 11.8 11.7 99 1024.8 5.4 S 7.6 0.0 0.2
11:30 11.8 11.7 99 1024.8 6.9 S 7.6 0.0 0.2
11:31 11.8 11.7 99 1024.9 6.0 S 7.6 0.0 0.2
11:32 11.7 11.6 99 1024.7 6.0 S 7.6 0.0 0.2
11:33 11.7 11.6 99 1024.8 5.4 NW 7.6 0.0 0.2
11:34 11.8 11.7 99 1024.8 5.4 S 6.9 0.0 0.2
11:35 11.7 11.6 99 1024.7 7.6 S 7.6 0.0 0.2
11:35 11.7 11.6 99 1024.7 7.6 S 7.6 0.0 0.2
11:36 11.7 11.6 99 1024.7 6.9 S 7.6 0.0 0.2
11:37 11.7 11.6 99 1024.6 6.9 S 7.6 0.0 0.2
11:38 11.7 11.6 99 1024.7 5.4 S 7.6 0.0 0.2
11:39 11.7 11.6 99 1024.9 5.4 S 7.6 0.0 0.2
11:40 11.8 11.7 99 1024.6 6.9 S 7.6 0.0 0.2
11:41 11.8 11.7 99 1024.8 5.4 S 7.6 0.0 0.2
11:42 11.8 11.7 99 1024.7 5.4 S 7.6 0.0 0.2
11:43 11.9 11.8 99 1024.7 5.4 S 7.6 0.0 0.2
11:44 11.9 11.8 99 1024.7 4.5 S 7.6 0.0 0.2
11:45 12.0 11.9 99 1024.5 4.5 S 7.6 0.0 0.2
11:47 12.1 12.0 99 1024.5 5.4 S 6.9 0.0 0.2
11:48 12.1 12.0 99 1024.5 3.8 S 6.9 0.0 0.2
11:49 12.2 12.1 99 1024.4 4.5 S 6.9 0.0 0.2
11:50 12.2 12.1 99 1024.6 6.9 S 6.9 0.0 0.2
11:51 12.3 12.2 99 1024.7 5.4 S 6.9 0.0 0.2
11:52 12.3 12.2 99 1024.5 4.5 S 6.9 0.0 0.2
11:53 12.3 12.2 99 1024.6 6.0 WSW 6.9 0.0 0.2
11:54 12.3 12.2 99 1024.5 6.0 NW 6.9 0.0 0.2
11:55 12.3 12.2 99 1024.6 5.4 WSW 6.9 0.0 0.2
11:56 12.2 12.1 99 1024.6 4.5 WSW 6.9 0.0 0.2
11:57 12.3 12.2 99 1024.7 6.0 WSW 6.9 0.0 0.2
11:58 12.3 12.2 99 1024.4 4.5 WSW 6.9 0.0 0.2
11:59 12.3 12.2 99 1024.4 6.9 S 6.9 0.0 0.2
12:00 12.2 12.1 99 1024.5 7.6 S 7.6 0.0 0.2
12:01 12.2 12.1 99 1024.6 6.9 S 7.6 0.0 0.2
12:02 12.2 12.1 99 1024.7 5.4 S 7.6 0.0 0.2
12:03 12.2 12.1 99 1024.5 5.4 S 7.6 0.0 0.2
12:04 12.2 12.1 99 1024.4 5.4 S 7.6 0.0 0.2
12:05 12.2 12.1 99 1024.4 5.4 S 7.6 0.0 0.2
12:07 12.2 12.1 99 1024.6 5.4 S 7.6 0.0 0.2
12:07 12.2 12.1 99 1024.6 5.4 S 7.6 0.0 0.2
12:09 12.2 12.1 99 1024.4 7.6 WSW 7.6 0.0 0.2
12:10 12.2 12.1 99 1024.4 6.0 WSW 7.6 0.0 0.2
12:10 12.2 12.1 99 1024.4 6.0 WSW 7.6 0.0 0.2
12:11 12.2 12.1 99 1024.4 7.6 S 7.6 0.0 0.2
12:12 12.3 12.2 99 1024.5 6.0 S 7.6 0.0 0.2
12:13 12.2 12.1 99 1024.6 6.0 S 7.6 0.0 0.2
12:14 12.3 12.2 99 1024.6 6.0 WSW 7.6 0.0 0.2
12:15 12.3 12.2 99 1024.4 6.0 WSW 7.6 0.0 0.2
12:16 12.3 12.2 99 1024.4 6.9 S 7.6 0.0 0.2
12:18 12.3 12.2 99 1024.4 6.0 W 7.6 0.0 0.2
12:19 12.3 12.2 99 1024.4 8.3 S 8.3 0.0 0.2
12:20 12.3 12.2 99 1024.4 8.3 S 8.3 0.0 0.2
12:21 12.3 12.2 99 1024.4 6.9 S 8.3 0.0 0.2
12:22 12.3 12.2 99 1024.5 7.6 SE 8.3 0.0 0.2
12:23 12.3 12.2 99 1024.4 6.9 S 8.3 0.0 0.2
12:24 12.3 12.2 99 1024.5 7.6 S 8.3 0.0 0.2
12:25 12.3 12.2 99 1024.5 7.6 S 8.3 0.0 0.2
12:26 12.3 12.2 99 1024.4 6.9 S 8.3 0.0 0.2
12:27 12.2 12.1 99 1024.4 8.3 S 8.3 0.0 0.2
12:28 12.2 12.1 99 1024.3 7.6 S 8.3 0.0 0.2
12:29 12.2 12.1 99 1024.3 6.9 WSW 8.3 0.0 0.2
12:30 12.2 12.1 99 1024.5 6.0 S 8.3 0.0 0.2
12:31 12.2 12.1 99 1024.4 7.6 S 8.3 0.0 0.2
12:32 12.2 12.1 99 1024.2 6.0 NNW 8.3 0.0 0.2
12:33 12.1 12.0 99 1024.4 4.5 NW 8.3 0.0 0.2
12:34 12.1 12.0 99 1024.5 4.5 S 8.3 0.0 0.2
12:35 12.1 12.0 99 1024.4 6.9 SW 8.3 0.0 0.2
12:36 12.1 12.0 99 1024.4 6.9 S 8.3 0.0 0.2
12:37 12.1 12.0 99 1024.3 5.4 S 8.3 0.0 0.2
12:38 12.1 12.0 99 1024.3 5.4 N 7.6 0.0 0.2
12:39 12.2 12.1 99 1024.3 4.5 S 7.6 0.0 0.2
12:40 12.2 12.1 99 1024.3 4.5 S 7.6 0.0 0.2
12:41 12.2 12.1 99 1024.2 6.0 S 7.6 0.0 0.2
12:42 12.2 12.1 99 1024.2 6.0 S 6.9 0.0 0.2
12:43 12.2 12.1 99 1024.3 6.0 S 6.9 0.0 0.2
12:44 12.2 12.1 99 1024.3 6.0 S 6.9 0.0 0.2
12:45 12.3 12.2 99 1024.3 6.9 S 6.9 0.0 0.2
12:46 12.3 12.2 99 1024.3 6.9 S 6.9 0.0 0.2
12:47 12.3 12.2 99 1024.4 5.4 S 6.9 0.0 0.2
12:48 12.3 12.2 99 1024.2 4.5 S 6.9 0.0 0.2
12:49 12.3 12.2 99 1024.4 8.3 S 8.3 0.0 0.2
12:50 12.3 12.2 99 1024.4 6.9 S 8.3 0.0 0.2
12:51 12.3 12.2 99 1024.3 6.9 S 8.3 0.0 0.2
12:52 12.3 12.2 99 1024.3 6.9 N 8.3 0.0 0.2
12:54 12.2 12.1 99 1024.2 5.4 S 8.3 0.0 0.2
12:55 12.2 12.1 99 1024.1 6.0 W 8.3 0.0 0.2
12:56 12.2 12.1 99 1024.3 4.5 N 8.3 0.0 0.2
12:57 12.2 12.1 99 1024.2 7.6 S 8.3 0.0 0.2
12:58 12.2 12.1 99 1024.1 7.6 S 8.3 0.0 0.2
12:59 12.2 12.1 99 1024.2 4.5 S 8.3 0.0 0.2
13:00 12.2 12.1 99 1024.2 5.4 S 7.6 0.0 0.2
13:01 12.2 12.1 99 1024.1 4.5 S 7.6 0.0 0.2
13:02 12.1 12.0 99 1024.1 4.5 S 7.6 0.0 0.2
13:02 12.1 12.0 99 1024.1 4.5 S 7.6 0.0 0.2
13:03 12.1 12.0 99 1024.1 4.5 S 7.6 0.0 0.2
13:04 12.1 12.0 99 1024.2 4.5 S 7.6 0.0 0.2
13:05 12.1 12.0 99 1024.1 4.5 S 7.6 0.0 0.2
13:07 12.1 12.0 99 1024.1 4.5 S 7.6 0.0 0.2
13:07 12.1 12.0 99 1024.1 4.5 S 7.6 0.0 0.2
13:08 12.3 12.2 99 1024.0 5.4 S 7.6 0.0 0.2
13:10 12.3 12.2 99 1024.0 6.9 S 6.9 0.0 0.2
13:10 12.3 12.2 99 1024.0 6.9 S 6.9 0.0 0.2
13:11 12.3 12.2 99 1024.1 5.4 S 6.9 0.0 0.2
13:12 12.3 12.2 99 1024.1 6.0 S 6.9 0.0 0.2
13:14 12.3 12.2 99 1024.1 8.3 SE 8.3 0.0 0.2
13:15 12.3 12.2 99 1024.0 6.9 S 8.3 0.0 0.2
13:16 12.3 12.2 99 1024.1 6.9 SW 8.3 0.0 0.2
13:17 12.3 12.2 99 1024.0 4.5 S 8.3 0.0 0.2
13:18 12.3 12.2 99 1023.9 4.5 S 8.3 0.0 0.2
13:19 12.3 12.2 99 1023.9 8.3 S 8.3 0.0 0.2
13:20 12.2 12.1 99 1024.0 8.3 S 8.3 0.0 0.2
13:21 12.2 12.1 99 1024.0 6.0 SE 8.3 0.0 0.2
13:22 12.2 12.1 99 1024.0 6.0 S 8.3 0.0 0.2
13:23 12.2 12.1 99 1024.0 6.0 S 8.3 0.0 0.2
13:24 12.1 12.0 99 1024.1 6.0 N 8.3 0.0 0.2
13:25 12.1 12.0 99 1024.0 6.0 N 8.3 0.0 0.2
13:26 12.1 12.0 99 1024.0 6.9 S 8.3 0.0 0.2
13:27 12.0 11.9 99 1024.0 8.3 S 8.3 0.0 0.2
13:28 12.0 11.9 99 1024.1 6.9 SE 8.3 0.0 0.2
13:29 12.0 11.9 99 1024.2 8.3 S 8.3 0.0 0.2
13:30 12.0 11.9 99 1024.2 8.3 S 8.3 0.0 0.2
13:31 12.0 11.9 99 1024.1 5.4 S 8.3 0.0 0.2
13:32 11.9 11.8 99 1024.0 7.6 S 8.3 0.0 0.2
13:33 11.9 11.8 99 1024.2 8.3 SE 8.3 0.0 0.2
13:34 11.9 11.8 99 1024.0 6.9 SE 8.3 0.0 0.2
13:34 11.9 11.8 99 1024.0 6.9 SE 8.3 0.0 0.2
13:35 11.9 11.8 99 1024.0 7.6 SE 8.3 0.0 0.2
13:36 11.9 11.8 99 1024.0 5.4 SE 8.3 0.0 0.2
13:37 11.8 11.7 99 1024.1 6.0 SW 8.3 0.0 0.2
13:38 11.9 11.8 99 1024.1 5.4 S 8.3 0.0 0.2
13:39 11.8 11.7 99 1024.0 5.4 S 8.3 0.0 0.2
13:40 11.8 11.7 99 1023.7 5.4 S 8.3 0.0 0.2
13:41 11.8 11.7 99 1024.1 6.0 S 8.3 0.0 0.2
13:42 11.8 11.7 99 1024.0 7.6 S 8.3 0.0 0.2
13:43 11.8 11.7 99 1024.0 8.3 S 8.3 0.0 0.2
13:44 11.8 11.7 99 1024.0 6.0 S 8.3 0.0 0.2
13:45 11.8 11.7 99 1024.0 6.0 S 8.3 0.0 0.2
13:46 11.8 11.7 99 1023.8 4.5 S 8.3 0.0 0.2
13:47 11.8 11.7 99 1023.9 5.4 S 8.3 0.0 0.2
13:48 11.8 11.7 99 1023.9 4.5 S 8.3 0.0 0.2
13:50 11.8 11.7 99 1023.9 5.4 S 8.3 0.0 0.2
13:51 11.8 11.7 99 1023.9 6.0 S 8.3 0.0 0.2
13:52 11.9 11.8 99 1023.9 5.4 N 8.3 0.0 0.2
13:53 11.8 11.7 99 1023.7 5.4 S 8.3 0.0 0.2
13:54 11.8 11.7 99 1023.8 6.0 S 6.9 0.0 0.2
13:55 11.9 11.8 99 1023.8 5.4 S 6.9 0.0 0.2
13:56 11.9 11.8 99 1023.7 4.5 S 6.9 0.0 0.2
13:57 11.9 11.8 99 1023.7 3.1 S 6.9 0.0 0.2
13:58 11.9 11.8 99 1023.8 2.2 N 6.9 0.0 0.2
13:59 11.9 11.8 99 1023.8 3.1 S 6.9 0.0 0.2
14:00 11.9 11.8 99 1023.7 5.4 S 6.9 0.0 0.2
14:01 11.9 11.8 99 1023.7 3.8 S 6.9 0.0 0.2
14:02 11.9 11.8 99 1023.7 3.1 S 6.0 0.0 0.2
14:03 11.9 11.8 99 1023.7 3.1 N 6.0 0.0 0.2
14:04 11.9 11.8 99 1023.7 3.1 N 5.4 0.0 0.2
14:05 11.9 11.8 99 1023.7 3.1 N 5.4 0.0 0.2
14:06 11.9 11.8 99 1023.7 3.1 N 5.4 0.0 0.2
14:06 11.9 11.8 99 1023.7 3.1 N 5.4 0.0 0.2
14:08 12.0 11.9 99 1023.6 6.0 SW 6.0 0.0 0.2
14:08 12.0 11.9 99 1023.6 6.0 SW 6.0 0.0 0.2
14:09 12.0 11.9 99 1023.7 4.5 W 6.0 0.0 0.2
14:11 12.0 11.9 99 1023.7 5.4 S 6.0 0.0 0.2
14:12 12.1 12.0 99 1023.6 3.8 S 6.0 0.0 0.2
14:13 12.0 11.9 99 1023.8 3.8 S 6.0 0.0 0.2
14:13 12.0 11.9 99 1023.8 3.8 S 6.0 0.0 0.2
14:14 12.0 11.9 99 1023.7 5.4 S 6.0 0.0 0.2
14:15 12.0 11.9 99 1023.7 3.8 S 6.0 0.0 0.2
14:16 12.0 11.9 99 1023.7 4.5 S 6.0 0.0 0.2
14:17 12.0 11.9 99 1023.7 6.0 SE 6.0 0.0 0.2
14:18 12.1 12.0 99 1023.7 6.0 SE 6.0 0.0 0.2
14:19 12.1 12.0 99 1023.8 4.5 S 6.0 0.0 0.2
14:20 12.1 12.0 99 1023.7 4.5 S 6.0 0.0 0.2
14:21 12.0 11.9 99 1023.8 6.0 S 6.0 0.0 0.2
14:22 12.1 12.0 99 1023.7 6.9 S 6.9 0.0 0.2
14:23 12.0 11.9 99 1023.7 5.4 S 6.9 0.0 0.2
14:24 12.1 12.0 99 1023.8 6.9 S 6.9 0.0 0.2
14:25 12.0 11.9 99 1023.7 7.6 S 7.6 0.0 0.2
14:26 12.1 12.0 99 1023.7 6.9 S 7.6 0.0 0.2
14:28 12.0 11.9 99 1023.7 5.4 S 7.6 0.0 0.2
14:29 12.0 11.9 99 1023.7 6.0 S 7.6 0.0 0.2
14:30 12.0 11.9 99 1023.7 4.5 W 7.6 0.0 0.2
14:31 12.0 11.9 99 1023.7 5.4 S 7.6 0.0 0.2
14:32 12.0 11.9 99 1023.7 6.0 S 7.6 0.0 0.2
14:33 12.0 11.9 99 1023.7 6.0 S 7.6 0.0 0.2
14:34 12.0 11.9 99 1023.7 5.4 S 7.6 0.0 0.2
14:35 12.0 11.9 99 1023.7 5.4 S 7.6 0.0 0.2
14:36 12.0 11.9 99 1023.5 4.5 N 6.9 0.0 0.2
14:37 12.0 11.9 99 1023.7 4.5 S 6.0 0.0 0.2
14:38 12.0 11.9 99 1023.7 3.8 S 6.0 0.0 0.2
14:39 12.0 11.9 99 1023.7 5.4 S 6.0 0.0 0.2
14:40 12.0 11.9 99 1023.7 5.4 S 6.0 0.0 0.2
14:41 12.0 11.9 99 1023.7 6.9 S 6.9 0.0 0.2
14:42 12.0 11.9 99 1023.8 6.9 S 6.9 0.0 0.2
14:43 11.9 11.8 99 1023.7 6.0 S 6.9 0.0 0.2
14:44 11.9 11.8 99 1023.8 3.1 S 6.9 0.0 0.2
14:45 11.9 11.8 99 1023.7 4.5 S 6.9 0.0 0.2
14:45 11.9 11.8 99 1023.7 4.5 S 6.9 0.0 0.2
14:46 11.9 11.8 99 1023.6 4.5 S 6.9 0.0 0.2
14:47 11.9 11.8 99 1023.7 3.8 S 6.9 0.0 0.2
14:48 11.9 11.8 99 1023.6 3.8 S 6.9 0.0 0.2
14:49 11.9 11.8 99 1023.7 3.8 S 6.9 0.0 0.2
14:50 11.9 11.8 99 1023.7 4.5 S 6.9 0.0 0.2
14:51 11.9 11.8 99 1023.7 5.4 S 6.9 0.0 0.2
14:52 11.9 11.8 99 1023.7 5.4 S 6.0 0.0 0.2
14:53 11.9 11.8 99 1023.8 6.0 S 6.0 0.0 0.2
14:54 11.9 11.8 99 1023.8 5.4 S 6.0 0.0 0.2
14:55 11.8 11.7 99 1023.8 5.4 SE 6.0 0.0 0.2
14:56 11.8 11.7 99 1023.8 4.5 S 6.0 0.0 0.2
14:57 11.8 11.7 99 1023.7 3.8 S 6.0 0.0 0.2
14:59 11.8 11.7 99 1023.7 3.8 S 6.0 0.0 0.2
15:00 11.8 11.7 99 1023.7 3.8 S 6.0 0.0 0.2
15:01 11.8 11.7 99 1023.6 3.1 S 6.0 0.0 0.2
15:02 11.8 11.7 99 1023.6 3.8 SE 6.0 0.0 0.2
15:03 11.8 11.7 99 1023.8 3.1 S 6.0 0.0 0.2
15:04 11.8 11.7 99 1023.7 3.1 S 5.4 0.0 0.2
15:05 11.8 11.7 99 1023.7 3.1 S 5.4 0.0 0.2
15:06 11.8 11.7 99 1023.6 3.1 S 4.5 0.0 0.2
15:07 11.8 11.7 99 1023.7 3.1 S 4.5 0.0 0.2
15:07 11.8 11.7 99 1023.7 3.1 S 4.5 0.0 0.2
15:08 11.8 11.7 99 1023.5 3.1 S 3.8 0.0 0.2
15:10 11.7 11.6 99 1023.6 3.1 S 3.8 0.0 0.2
15:10 11.7 11.6 99 1023.6 3.1 S 3.8 0.0 0.2
15:11 11.7 11.6 99 1023.7 3.8 S 3.8 0.0 0.2
15:13 11.7 11.6 99 1023.7 3.1 N 4.5 0.0 0.2
15:14 11.7 11.6 99 1023.7 3.1 N 4.5 0.0 0.2
15:15 11.7 11.6 99 1023.7 2.2 W 4.5 0.0 0.2
15:16 11.7 11.6 99 1023.7 3.1 S 4.5 0.0 0.2
15:17 11.7 11.6 99 1023.7 6.0 S 6.0 0.0 0.2
15:18 11.7 11.6 99 1023.7 5.4 S 6.0 0.0 0.2
15:18 11.7 11.6 99 1023.7 5.4 S 6.0 0.0 0.2
15:19 11.7 11.6 99 1023.6 4.5 N 6.0 0.0 0.2
15:20 11.6 11.5 99 1023.7 5.4 S 6.0 0.0 0.2
15:21 11.6 11.5 99 1023.7 4.5 N 6.0 0.0 0.2
15:22 11.6 11.5 99 1023.6 3.8 S 6.0 0.0 0.2
15:23 11.6 11.5 99 1023.6 3.8 S 6.0 0.0 0.2
15:24 11.6 11.5 99 1023.5 3.8 S 6.0 0.0 0.2
15:25 11.6 11.5 99 1023.5 3.8 S 6.0 0.0 0.2
15:26 11.6 11.5 99 1023.6 4.5 S 6.0 0.0 0.2
15:27 11.6 11.5 99 1023.7 4.5 S 6.0 0.0 0.2
15:28 11.6 11.5 99 1023.6 3.1 S 5.4 0.0 0.2
15:29 11.6 11.5 99 1023.5 4.5 S 5.4 0.0 0.2
15:30 11.6 11.5 99 1023.7 3.8 S 4.5 0.0 0.2
15:32 11.6 11.5 99 1023.4 2.2 S 4.5 0.0 0.2
15:33 11.6 11.5 99 1023.7 3.1 S 4.5 0.0 0.2
15:33 11.6 11.5 99 1023.7 3.1 S 4.5 0.0 0.2
15:34 11.5 11.4 99 1023.6 3.8 S 4.5 0.0 0.2
15:35 11.6 11.5 99 1023.7 3.1 S 4.5 0.0 0.2
15:36 11.5 11.4 99 1023.6 3.1 S 4.5 0.0 0.2
15:38 11.6 11.5 99 1023.6 3.8 S 4.5 0.0 0.2
15:39 11.5 11.4 99 1023.5 6.0 S 6.0 0.0 0.2
15:40 11.6 11.5 99 1023.7 4.5 S 6.0 0.0 0.2
15:41 11.5 11.4 99 1023.6 3.8 S 6.0 0.0 0.2
15:42 11.5 11.4 99 1023.7 3.1 S 6.0 0.0 0.2
15:43 11.5 11.4 99 1023.7 3.8 S 6.0 0.0 0.2
15:44 11.5 11.4 99 1023.7 3.8 S 6.0 0.0 0.2
15:45 11.5 11.4 99 1023.7 3.8 S 6.0 0.0 0.2
15:46 11.5 11.4 99 1023.7 3.8 W 6.0 0.0 0.2
15:47 11.5 11.4 99 1023.8 3.8 N 6.0 0.0 0.2
15:47 11.5 11.4 99 1023.8 3.8 N 6.0 0.0 0.2
15:48 11.5 11.4 99 1023.7 3.1 N 6.0 0.0 0.2
15:49 11.5 11.4 99 1023.6 2.2 S 4.5 0.0 0.2
15:50 11.5 11.4 99 1023.7 2.2 S 3.8 0.0 0.2
15:51 11.5 11.4 99 1023.6 2.2 S 3.8 0.0 0.2
15:52 11.5 11.4 99 1023.6 3.8 S 3.8 0.0 0.2
15:53 11.5 11.4 99 1023.7 3.8 S 3.8 0.0 0.2
15:54 11.5 11.4 99 1023.6 3.1 S 3.8 0.0 0.2
15:55 11.5 11.4 99 1023.6 3.1 S 3.8 0.0 0.2
15:56 11.5 11.4 99 1023.6 4.5 S 4.5 0.0 0.2
15:57 11.4 11.3 99 1023.7 4.5 S 4.5 0.0 0.2
15:58 11.4 11.3 99 1023.8 4.5 S 4.5 0.0 0.2
16:00 11.4 11.3 99 1023.6 3.8 SE 4.5 0.0 0.2
16:01 11.4 11.3 99 1023.7 5.4 S 5.4 0.0 0.2
16:02 11.4 11.3 99 1023.6 3.8 S 5.4 0.0 0.2
16:03 11.4 11.3 99 1023.5 3.8 S 5.4 0.0 0.2
16:04 11.4 11.3 99 1023.6 3.8 S 5.4 0.0 0.2
16:05 11.4 11.3 99 1023.5 3.8 S 5.4 0.0 0.2
16:06 11.4 11.3 99 1023.7 3.8 S 5.4 0.0 0.2
16:06 11.4 11.3 99 1023.7 3.8 S 5.4 0.0 0.2
16:07 11.4 11.3 99 1023.6 3.8 S 5.4 0.0 0.2
16:09 11.4 11.3 99 1023.7 4.5 S 5.4 0.0 0.2
16:09 11.4 11.3 99 1023.7 4.5 S 5.4 0.0 0.2
16:10 11.4 11.3 99 1023.6 3.1 S 5.4 0.0 0.2
16:12 11.4 11.3 99 1023.5 3.8 S 4.5 0.0 0.2
16:13 11.4 11.3 99 1023.4 3.8 SE 4.5 0.0 0.2
16:14 11.3 11.2 99 1023.5 3.8 SE 4.5 0.0 0.2
16:14 11.3 11.2 99 1023.5 3.8 SE 4.5 0.0 0.2
16:15 11.3 11.2 99 1023.6 3.1 SE 4.5 0.0 0.2
16:16 11.4 11.3 99 1023.5 2.2 SE 4.5 0.0 0.2
16:17 11.3 11.2 99 1023.4 3.1 S 4.5 0.0 0.2
16:18 11.3 11.2 99 1023.5 3.1 S 4.5 0.0 0.2
16:19 11.3 11.2 99 1023.4 3.8 S 3.8 0.0 0.2
16:20 11.3 11.2 99 1023.4 3.1 S 3.8 0.0 0.2
16:21 11.3 11.2 99 1023.6 2.2 S 3.8 0.0 0.2
16:22 11.3 11.2 99 1023.5 2.2 S 3.8 0.0 0.2
16:23 11.3 11.2 99 1023.5 2.2 S 3.8 0.0 0.2
16:24 11.3 11.2 99 1023.4 2.2 S 3.8 0.0 0.2
16:25 11.3 11.2 99 1023.5 2.2 S 3.8 0.0 0.2
16:27 11.3 11.2 99 1023.6 2.2 S 3.8 0.0 0.2
16:28 11.3 11.2 99 1023.5 2.2 S 3.8 0.0 0.2
16:29 11.3 11.2 99 1023.5 3.1 S 3.8 0.0 0.2
16:30 11.3 11.2 99 1023.5 2.2 S 3.1 0.0 0.2
16:31 11.2 11.1 99 1023.4 2.2 S 3.1 0.0 0.2
16:32 11.2 11.1 99 1023.3 3.1 S 3.1 0.0 0.2
16:33 11.2 11.1 99 1023.3 1.6 S 3.1 0.0 0.2
16:34 11.2 11.1 99 1023.4 2.2 S 3.1 0.0 0.2
16:35 11.2 11.1 99 1023.4 2.2 S 3.1 0.0 0.2
16:36 11.2 11.1 99 1023.3 3.1 S 3.1 0.0 0.2
16:37 11.2 11.1 99 1023.3 3.1 S 3.1 0.0 0.2
16:38 11.2 11.1 99 1023.4 3.1 SE 3.1 0.0 0.2
16:39 11.2 11.1 99 1023.4 2.2 SE 3.1 0.0 0.2
16:40 11.2 11.1 99 1023.3 3.1 SE 3.1 0.0 0.2
16:40 11.2 11.1 99 1023.3 3.1 SE 3.1 0.0 0.2
16:41 11.2 11.1 99 1023.2 3.1 SE 3.1 0.0 0.2
16:42 11.2 11.1 99 1023.3 3.1 SE 3.1 0.0 0.2
16:43 11.2 11.1 99 1023.3 3.8 SE 3.8 0.0 0.2
16:44 11.2 11.1 99 1023.5 4.5 SE 4.5 0.0 0.2
16:45 11.1 11.0 99 1023.5 3.1 SE 4.5 0.0 0.2
16:46 11.2 11.1 99 1023.5 4.5 SE 4.5 0.0 0.2
16:47 11.2 11.1 99 1023.5 3.8 SE 4.5 0.0 0.2
16:48 11.2 11.1 99 1023.4 3.1 SE 4.5 0.0 0.2
16:50 11.1 11.0 99 1023.3 5.4 S 5.4 0.0 0.2
16:51 11.1 11.0 99 1023.4 3.8 S 5.4 0.0 0.2
16:52 11.1 11.0 99 1023.5 3.8 SE 5.4 0.0 0.2
16:53 11.1 11.0 99 1023.4 4.5 SE 5.4 0.0 0.2
16:54 11.1 11.0 99 1023.4 3.8 S 5.4 0.0 0.2
16:55 11.1 11.0 99 1023.5 3.1 SE 5.4 0.0 0.2
16:55 11.1 11.0 99 1023.5 3.1 SE 5.4 0.0 0.2
16:56 11.1 11.0 99 1023.3 3.1 SE 5.4 0.0 0.2
16:57 11.1 11.0 99 1023.2 3.1 SE 5.4 0.0 0.2
16:59 11.1 11.0 99 1023.2 3.1 SE 5.4 0.0 0.2
17:00 11.1 11.0 99 1023.2 3.1 SE 5.4 0.0 0.2
17:01 11.1 11.0 99 1023.2 3.1 SE 4.5 0.0 0.2
17:02 11.1 11.0 99 1023.3 3.1 SE 4.5 0.0 0.2
17:03 11.1 11.0 99 1023.2 3.1 SE 3.8 0.0 0.2
17:04 11.1 11.0 99 1023.2 3.1 SE 3.8 0.0 0.2
17:05 11.1 11.0 99 1023.2 3.1 SE 3.8 0.0 0.2
17:06 11.1 11.0 99 1023.4 3.1 SE 3.8 0.0 0.2
17:06 11.1 11.0 99 1023.4 3.1 SE 3.8 0.0 0.2
17:07 11.1 11.0 99 1023.2 3.1 SE 3.8 0.0 0.2
17:08 11.0 10.9 99 1023.3 2.2 SE 3.8 0.0 0.2
17:08 11.0 10.9 99 1023.3 2.2 SE 3.8 0.0 0.2
17:11 11.0 10.9 99 1023.2 2.2 SE 3.8 0.0 0.2
17:11 11.0 10.9 99 1023.2 2.2 SE 3.8 0.0 0.2
17:12 11.0 10.9 99 1023.3 2.2 SE 3.1 0.0 0.2
17:14 11.0 10.9 99 1023.3 2.2 SE 3.1 0.0 0.2
17:15 11.0 10.9 99 1023.2 2.2 SE 3.1 0.0 0.2
17:15 11.0 10.9 99 1023.2 2.2 SE 3.1 0.0 0.2
17:16 10.9 10.8 99 1023.2 1.6 SE 3.1 0.0 0.2
17:17 10.9 10.8 99 1023.1 1.6 SE 2.2 0.0 0.2
17:18 10.9 10.8 99 1023.1 1.6 SE 2.2 0.0 0.2
17:19 10.9 10.8 99 1023.2 2.2 SE 2.2 0.0 0.2
17:20 10.9 10.8 99 1023.1 2.2 SE 3.1 0.0 0.2
17:22 10.9 10.8 99 1023.0 2.2 SE 3.1 0.0 0.2
17:23 10.9 10.8 99 1023.0 3.1 SE 3.1 0.0 0.2
17:24 10.9 10.8 99 1023.0 3.1 SE 3.1 0.0 0.2
17:25 10.9 10.8 99 1023.0 3.8 SE 3.8 0.0 0.2
17:25 10.9 10.8 99 1023.0 3.8 SE 3.8 0.0 0.2
17:26 10.9 10.8 99 1023.1 3.1 SE 3.8 0.0 0.2
17:27 10.8 10.7 99 1023.0 2.2 SE 3.8 0.0 0.2
17:28 10.9 10.8 99 1023.0 3.1 SE 3.8 0.0 0.2
17:30 10.8 10.7 99 1023.1 2.2 SE 3.8 0.0 0.2
17:31 10.8 10.7 99 1023.0 2.2 SE 3.8 0.0 0.2
17:31 10.8 10.7 99 1023.0 2.2 SE 3.8 0.0 0.2
17:32 10.8 10.7 99 1022.9 1.6 SE 3.8 0.0 0.2
17:33 10.8 10.7 99 1022.8 1.6 SE 3.8 0.0 0.2
17:34 10.8 10.7 99 1022.9 1.6 SE 3.8 0.0 0.2
17:35 10.8 10.7 99 1022.9 2.2 SE 3.8 0.0 0.2
17:37 10.7 10.6 99 1023.0 2.2 SE 3.1 0.0 0.2
17:38 10.8 10.7 99 1023.1 3.1 SE 3.1 0.0 0.2
17:39 10.7 10.6 99 1022.9 3.1 SE 3.8 0.0 0.2
17:40 10.7 10.6 99 1022.9 3.1 SE 3.8 0.0 0.2
17:41 10.7 10.6 99 1023.0 3.1 SE 3.8 0.0 0.2
17:41 10.7 10.6 99 1023.0 3.1 SE 3.8 0.0 0.2
17:42 10.7 10.6 99 1023.0 3.1 SE 3.8 0.0 0.2
17:43 10.7 10.6 99 1022.7 2.2 SE 3.8 0.0 0.2
17:44 10.7 10.6 99 1022.9 2.2 SE 3.8 0.0 0.2
17:45 10.6 10.5 99 1022.8 1.6 SE 3.8 0.0 0.2
17:46 10.6 10.5 99 1022.8 3.1 SE 3.8 0.0 0.2
17:48 10.6 10.5 99 1022.8 3.8 SE 3.8 0.0 0.2
17:49 10.6 10.5 99 1022.9 3.8 SE 3.8 0.0 0.2
17:50 10.6 10.5 99 1022.9 3.8 SE 3.8 0.0 0.2
17:51 10.6 10.5 99 1023.0 2.2 SE 3.8 0.0 0.2
17:52 10.6 10.5 99 1022.9 3.1 SE 3.8 0.0 0.2
17:53 10.6 10.5 99 1023.0 3.8 NW 3.8 0.0 0.2
17:54 10.6 10.5 99 1022.9 3.1 SE 3.8 0.0 0.2
17:55 10.5 10.4 99 1023.0 2.2 SE 3.8 0.0 0.2
17:56 10.5 10.4 99 1022.9 2.2 SE 3.8 0.0 0.2
17:58 10.5 10.4 99 1023.1 3.1 SE 3.8 0.0 0.2
17:59 10.5 10.4 99 1023.1 2.2 SE 3.8 0.0 0.2
17:59 10.5 10.4 99 1023.1 2.2 SE 3.8 0.0 0.2
18:00 10.4 10.3 99 1023.1 3.1 SE 3.8 0.0 0.2
18:01 10.5 10.4 99 1023.2 3.1 SE 3.8 0.0 0.2
18:03 10.5 10.4 99 1023.0 3.1 SE 3.8 0.0 0.2
18:04 10.5 10.4 99 1023.1 3.1 SE 3.1 0.0 0.2
18:05 10.5 10.4 99 1023.1 3.1 SE 3.1 0.0 0.2
18:05 10.5 10.4 99 1023.1 3.1 SE 3.1 0.0 0.2
18:06 10.5 10.4 99 1023.2 3.1 SE 3.1 0.0 0.2
18:08 10.4 10.3 99 1023.1 2.2 SE 3.1 0.0 0.2
18:08 10.4 10.3 99 1023.1 2.2 SE 3.1 0.0 0.2
18:09 10.4 10.3 99 1023.1 3.1 SE 3.1 0.0 0.2
18:09 10.4 10.3 99 1023.1 3.1 SE 3.1 0.0 0.2
18:11 10.4 10.3 99 1023.0 3.8 SE 3.8 0.0 0.2
18:13 10.4 10.3 99 1023.0 3.8 SE 3.8 0.0 0.2
18:14 10.4 10.3 99 1023.1 3.8 SE 4.5 0.0 0.2
18:14 10.4 10.3 99 1023.1 3.8 SE 4.5 0.0 0.2
18:15 10.4 10.3 99 1023.2 3.1 SE 4.5 0.0 0.2
18:16 10.4 10.3 99 1023.0 3.1 SE 4.5 0.0 0.2
18:18 10.4 10.3 99 1023.2 3.8 SE 4.5 0.0 0.2
18:19 10.4 10.3 99 1023.2 3.1 SE 4.5 0.0 0.2
18:19 10.4 10.3 99 1023.2 3.1 SE 4.5 0.0 0.2
18:20 10.4 10.3 99 1023.2 3.1 SE 4.5 0.0 0.2
18:21 10.4 10.3 99 1023.3 2.2 SE 4.5 0.0 0.2
18:22 10.4 10.3 99 1023.2 2.2 SE 4.5 0.0 0.2
18:23 10.4 10.3 99 1023.2 2.2 SE 4.5 0.0 0.2
18:25 10.4 10.3 99 1023.3 2.2 SE 3.8 0.0 0.2
18:26 10.4 10.3 99 1023.2 2.2 SE 3.8 0.0 0.2
18:27 10.4 10.3 99 1023.0 3.1 SE 3.8 0.0 0.2
18:28 10.4 10.3 99 1023.0 3.1 SE 3.8 0.0 0.2
18:28 10.4 10.3 99 1023.0 3.1 SE 3.8 0.0 0.2
18:29 10.4 10.3 99 1023.0 3.1 SE 3.8 0.0 0.2
18:30 10.4 10.3 99 1023.0 2.2 SE 3.1 0.0 0.2
18:31 10.4 10.3 99 1023.0 1.6 SE 3.1 0.0 0.2
18:32 10.4 10.3 99 1023.0 1.6 SE 3.1 0.0 0.2
18:34 10.4 10.3 99 1023.1 1.6 SE 3.1 0.0 0.2
18:35 10.4 10.3 99 1023.2 0.7 SE 3.1 0.0 0.2
18:36 10.4 10.3 99 1023.0 0.7 SE 3.1 0.0 0.2
18:37 10.4 10.3 99 1023.1 0.0 SE 3.1 0.0 0.2
18:37 10.4 10.3 99 1023.1 0.0 SE 3.1 0.0 0.2
18:38 10.4 10.3 99 1023.2 0.7 SE 3.1 0.0 0.2
18:39 10.4 10.3 99 1023.1 1.6 SE 3.1 0.0 0.2
18:41 10.3 10.2 99 1023.2 2.2 SE 2.2 0.0 0.2
18:42 10.3 10.2 99 1023.2 2.2 SE 2.2 0.0 0.2
18:43 10.3 10.2 99 1023.2 1.6 SE 2.2 0.0 0.2
18:44 10.3 10.2 99 1023.2 1.6 SE 2.2 0.0 0.2
18:45 10.3 10.2 99 1023.1 2.2 SE 2.2 0.0 0.2
18:45 10.3 10.2 99 1023.1 2.2 SE 2.2 0.0 0.2
18:46 10.3 10.2 99 1023.1 1.6 SE 2.2 0.0 0.2
18:47 10.3 10.2 99 1023.1 2.2 SE 2.2 0.0 0.2
18:49 10.3 10.2 99 1023.2 2.2 SE 2.2 0.0 0.2
18:50 10.3 10.2 99 1023.1 1.6 SE 2.2 0.0 0.2
18:51 10.3 10.2 99 1023.0 2.2 SE 2.2 0.0 0.2
18:52 10.3 10.2 99 1022.9 1.6 SE 2.2 0.0 0.2
18:53 10.3 10.2 99 1022.9 1.6 SE 2.2 0.0 0.2
18:53 10.3 10.2 99 1022.9 1.6 SE 2.2 0.0 0.2
18:54 10.3 10.2 99 1023.0 0.7 SE 2.2 0.0 0.2
18:55 10.3 10.2 99 1023.0 0.7 SE 2.2 0.0 0.2
18:56 10.3 10.2 99 1023.0 0.7 SE 2.2 0.0 0.2
18:57 10.3 10.2 99 1023.1 2.2 SE 2.2 0.0 0.2
18:58 10.3 10.2 99 1023.0 2.2 SE 2.2 0.0 0.2
19:00 10.3 10.2 99 1022.9 2.2 SE 2.2 0.0 0.2
19:01 10.3 10.2 99 1023.0 2.2 SE 2.2 0.0 0.2
19:02 10.3 10.2 99 1022.7 2.2 SE 2.2 0.0 0.2
19:03 10.3 10.2 99 1022.7 2.2 SE 2.2 0.0 0.2
19:04 10.3 10.2 99 1022.8 2.2 SE 2.2 0.0 0.2
19:04 10.3 10.2 99 1022.8 2.2 SE 2.2 0.0 0.2
19:05 10.3 10.2 99 1022.8 2.2 SE 2.2 0.0 0.2
19:07 10.3 10.2 99 1023.1 2.2 SE 2.2 0.0 0.2
19:07 10.3 10.2 99 1023.1 2.2 SE 2.2 0.0 0.2
19:08 10.3 10.2 99 1023.0 3.8 SE 3.8 0.0 0.2
19:10 10.2 10.1 99 1022.9 2.2 SE 3.8 0.0 0.2
19:10 10.2 10.1 99 1022.9 2.2 SE 3.8 0.0 0.2
19:11 10.3 10.2 99 1022.9 3.8 S 3.8 0.0 0.2
19:11 10.3 10.2 99 1022.9 3.8 S 3.8 0.0 0.2
19:13 10.2 10.1 99 1023.0 3.1 S 3.8 0.0 0.2
19:15 10.3 10.2 99 1022.9 3.8 SE 4.5 0.0 0.2
19:15 10.3 10.2 99 1022.9 3.8 SE 4.5 0.0 0.2
19:16 10.3 10.2 99 1023.0 3.8 SE 4.5 0.0 0.2
19:17 10.3 10.2 99 1023.0 3.1 SE 4.5 0.0 0.2
19:19 10.3 10.2 99 1022.9 3.8 S 5.4 0.0 0.2
19:20 10.3 10.2 99 1022.8 3.8 S 5.4 0.0 0.2
19:21 10.3 10.2 99 1023.0 5.4 S 5.4 0.0 0.2
19:21 10.3 10.2 99 1023.0 5.4 S 5.4 0.0 0.2
19:22 10.3 10.2 99 1023.0 3.1 SE 5.4 0.0 0.2
19:23 10.3 10.2 99 1023.0 3.8 SE 5.4 0.0 0.2
19:24 10.3 10.2 99 1023.0 3.8 SE 5.4 0.0 0.2
19:25 10.3 10.2 99 1023.1 3.1 SE 5.4 0.0 0.2
19:27 10.3 10.2 99 1023.1 3.8 SE 5.4 0.0 0.2
19:28 10.3 10.2 99 1023.1 3.1 SE 5.4 0.0 0.2
19:29 10.3 10.2 99 1023.1 3.8 SE 5.4 0.0 0.2
19:30 10.3 10.2 99 1023.1 3.8 S 5.4 0.0 0.2
19:31 10.3 10.2 99 1023.0 2.2 SE 5.4 0.0 0.2
19:31 10.3 10.2 99 1023.0 2.2 SE 5.4 0.0 0.2
19:32 10.3 10.2 99 1023.0 2.2 SE 4.5 0.0 0.2
19:33 10.3 10.2 99 1023.1 2.2 SE 4.5 0.0 0.2
19:34 10.3 10.2 99 1022.9 1.6 SE 4.5 0.0 0.2
19:35 10.3 10.2 99 1023.1 2.2 SE 4.5 0.0 0.2
19:36 10.3 10.2 99 1023.2 3.1 SE 4.5 0.0 0.2
19:37 10.3 10.2 99 1023.0 1.6 SE 3.8 0.0 0.2
19:39 10.3 10.2 99 1023.0 2.2 SE 3.8 0.0 0.2
19:40 10.3 10.2 99 1022.8 1.6 SE 3.8 0.0 0.2
19:40 10.3 10.2 99 1022.8 1.6 SE 3.8 0.0 0.2
19:42 10.3 10.2 99 1022.9 1.6 SE 3.1 0.0 0.2
19:42 10.3 10.2 99 1022.9 1.6 SE 3.1 0.0 0.2
19:46 10.3 10.2 99 1023.1 2.2 SE 3.1 0.0 0.2
19:46 10.3 10.2 99 1023.1 2.2 SE 3.1 0.0 0.2
19:48 10.3 10.2 99 1023.0 2.2 SE 2.2 0.0 0.2
19:49 10.3 10.2 99 1023.0 2.2 SE 2.2 0.0 0.2
19:50 10.3 10.2 99 1023.1 1.6 SE 2.2 0.0 0.2
19:50 10.3 10.2 99 1023.1 1.6 SE 2.2 0.0 0.2
19:52 10.3 10.2 99 1023.0 2.2 SE 2.2 0.0 0.2
19:53 10.3 10.2 99 1023.0 2.2 SE 2.2 0.0 0.2
19:54 10.3 10.2 99 1023.0 1.6 SE 2.2 0.0 0.2
19:55 10.3 10.2 99 1023.0 2.2 SE 2.2 0.0 0.2
19:56 10.3 10.2 99 1023.1 2.2 SE 2.2 0.0 0.2
19:57 10.3 10.2 99 1023.1 3.1 SE 3.1 0.0 0.2
19:58 10.3 10.2 99 1023.0 2.2 SE 3.1 0.0 0.2
19:59 10.3 10.2 99 1023.1 3.1 SE 3.1 0.0 0.2
20:00 10.2 10.1 99 1023.0 3.1 SE 3.1 0.0 0.2
20:00 10.2 10.1 99 1023.0 3.1 SE 3.1 0.0 0.2
20:02 10.3 10.2 99 1023.0 3.1 SE 3.1 0.0 0.2
20:03 10.3 10.2 99 1022.8 3.8 SE 3.8 0.0 0.2
20:04 10.3 10.2 99 1022.9 3.8 SE 3.8 0.0 0.2
20:05 10.3 10.2 99 1023.0 3.8 SE 3.8 0.0 0.2
20:06 10.3 10.2 99 1023.0 3.8 SE 3.8 0.0 0.2
20:06 10.3 10.2 99 1023.0 3.8 SE 3.8 0.0 0.2
20:08 10.3 10.2 99 1023.1 3.8 SE 3.8 0.0 0.2
20:08 10.3 10.2 99 1023.1 3.8 SE 3.8 0.0 0.2
20:10 10.3 10.2 99 1022.9 3.1 SE 3.8 0.0 0.2
20:10 10.3 10.2 99 1022.9 3.1 SE 3.8 0.0 0.2
20:12 10.2 10.1 99 1023.1 4.5 S 4.5 0.0 0.2
20:13 10.3 10.2 99 1023.0 3.8 S 4.5 0.0 0.2
20:13 10.3 10.2 99 1023.0 3.8 S 4.5 0.0 0.2
20:15 10.2 10.1 99 1022.9 3.1 SE 4.5 0.0 0.2
20:15 10.2 10.1 99 1022.9 3.1 SE 4.5 0.0 0.2
20:17 10.2 10.1 99 1023.0 3.1 SE 4.5 0.0 0.2
20:18 10.3 10.2 99 1022.7 3.8 SE 5.4 0.0 0.2
20:19 10.2 10.1 99 1023.1 4.5 SE 5.4 0.0 0.2
20:19 10.2 10.1 99 1023.1 4.5 SE 5.4 0.0 0.2
20:21 10.3 10.2 99 1022.9 2.2 SE 5.4 0.0 0.2
20:22 10.2 10.1 99 1022.7 3.1 SE 5.4 0.0 0.2
20:23 10.3 10.2 99 1022.9 3.1 SE 5.4 0.0 0.2
20:24 10.3 10.2 99 1022.7 3.8 SE 5.4 0.0 0.2
20:25 10.3 10.2 99 1022.7 3.8 SE 5.4 0.0 0.2
20:26 10.3 10.2 99 1022.7 3.1 SE 5.4 0.0 0.2
20:27 10.3 10.2 99 1022.7 3.8 SE 5.4 0.0 0.2
20:28 10.3 10.2 99 1022.8 3.8 SE 4.5 0.0 0.2
20:29 10.3 10.2 99 1022.8 3.8 SE 4.5 0.0 0.2
20:29 10.3 10.2 99 1022.8 3.8 SE 4.5 0.0 0.2
20:31 10.3 10.2 99 1022.9 3.1 SE 3.8 0.0 0.2
20:32 10.3 10.2 99 1022.7 3.1 SE 3.8 0.0 0.2
20:33 10.3 10.2 99 1022.8 3.1 SE 3.8 0.0 0.2
20:34 10.3 10.2 99 1022.7 3.8 SE 3.8 0.0 0.2
20:35 10.2 10.1 99 1022.9 3.8 SE 3.8 0.0 0.2
20:36 10.3 10.2 99 1022.7 3.1 SE 3.8 0.0 0.2
20:37 10.2 10.1 99 1022.7 3.1 SE 3.8 0.0 0.2
20:38 10.2 10.1 99 1022.8 3.8 SE 3.8 0.0 0.2
20:39 10.2 10.1 99 1022.7 3.1 SE 3.8 0.0 0.2
20:40 10.3 10.2 99 1022.7 2.2 SE 3.8 0.0 0.2
20:40 10.3 10.2 99 1022.7 2.2 SE 3.8 0.0 0.2
20:42 10.3 10.2 99 1022.9 3.1 SE 3.8 0.0 0.2
20:43 10.2 10.1 99 1022.6 2.2 SE 3.8 0.0 0.2
20:44 10.2 10.1 99 1022.7 2.2 SE 3.8 0.0 0.2
20:45 10.2 10.1 99 1022.7 1.6 SE 3.8 0.0 0.2
20:46 10.2 10.1 99 1022.7 1.6 SE 3.8 0.0 0.2
20:47 10.3 10.2 99 1022.7 1.6 SE 3.8 0.0 0.2
20:48 10.2 10.1 99 1022.7 1.6 SE 3.1 0.0 0.2
20:49 10.2 10.1 99 1022.9 2.2 SE 3.1 0.0 0.2
20:49 10.2 10.1 99 1022.9 2.2 SE 3.1 0.0 0.2
20:51 10.2 10.1 99 1022.8 1.6 SE 3.1 0.0 0.2
20:52 10.2 10.1 99 1022.9 0.7 SE 3.1 0.0 0.2
20:53 10.2 10.1 99 1022.8 0.0 SE 2.2 0.0 0.2
20:54 10.2 10.1 99 1022.8 0.7 SE 2.2 0.0 0.2
20:55 10.2 10.1 99 1022.8 0.0 SE 2.2 0.0 0.2
20:56 10.2 10.1 99 1022.9 0.7 SE 2.2 0.0 0.2
20:56 10.2 10.1 99 1022.9 0.7 SE 2.2 0.0 0.2
20:58 10.2 10.1 99 1023.0 0.7 SE 2.2 0.0 0.2
20:59 10.2 10.1 99 1023.0 0.0 SE 2.2 0.0 0.2
21:00 10.2 10.1 99 1022.9 1.6 SE 1.6 0.0 0.2
21:01 10.2 10.1 99 1022.9 0.7 SE 1.6 0.0 0.2
21:02 10.2 10.1 99 1023.0 0.7 SE 1.6 0.0 0.2
21:03 10.2 10.1 99 1023.0 0.7 SE 1.6 0.0 0.2
21:04 10.2 10.1 99 1023.1 0.7 SE 1.6 0.0 0.2
21:05 10.2 10.1 99 1023.1 0.7 SE 1.6 0.0 0.2
21:05 10.2 10.1 99 1023.1 0.7 SE 1.6 0.0 0.2
21:06 10.2 10.1 99 1022.9 0.7 SE 1.6 0.0 0.2
21:08 10.1 10.0 99 1023.0 0.7 SE 1.6 0.0 0.2
21:08 10.1 10.0 99 1023.0 0.7 SE 1.6 0.0 0.2
21:10 10.1 10.0 99 1022.9 1.6 SE 1.6 0.0 0.2
21:11 10.1 10.0 99 1023.0 0.7 SE 1.6 0.0 0.2
21:11 10.1 10.0 99 1023.0 0.7 SE 1.6 0.0 0.2
21:13 10.1 10.0 99 1023.2 1.6 SE 1.6 0.0 0.2
21:13 10.1 10.0 99 1023.2 1.6 SE 1.6 0.0 0.2
21:15 10.1 10.0 99 1023.2 1.6 SE 1.6 0.0 0.2
21:16 10.1 10.0 99 1023.2 0.7 SE 1.6 0.0 0.2
21:16 10.1 10.0 99 1023.2 0.7 SE 1.6 0.0 0.2
21:18 10.1 10.0 99 1023.1 1.6 SE 1.6 0.0 0.2
21:18 10.1 10.0 99 1023.1 1.6 SE 1.6 0.0 0.2
21:20 10.1 10.0 99 1023.0 1.6 SE 1.6 0.0 0.2
21:20 10.1 10.0 99 1023.0 1.6 SE 1.6 0.0 0.2
21:21 10.1 10.0 99 1023.0 1.6 SE 1.6 0.0 0.2
21:23 10.1 10.0 99 1023.0 1.6 SE 1.6 0.0 0.2
21:24 10.1 10.0 99 1023.1 1.6 SE 1.6 0.0 0.2
21:25 10.1 10.0 99 1023.0 1.6 SE 1.6 0.0 0.2
21:26 10.0 9.9 99 1022.9 1.6 SE 1.6 0.0 0.2
21:27 10.1 10.0 99 1022.8 1.6 SE 2.2 0.0 0.2
21:28 10.0 9.9 99 1022.8 1.6 SE 2.2 0.0 0.2
21:28 10.0 9.9 99 1022.8 1.6 SE 2.2 0.0 0.2
21:30 10.0 9.9 99 1022.9 2.2 SE 2.2 0.0 0.2
21:31 10.0 9.9 99 1023.0 2.2 SE 2.2 0.0 0.2
21:32 10.0 9.9 99 1022.9 2.2 SE 2.2 0.0 0.2
21:33 10.0 9.9 99 1023.0 3.1 SE 3.1 0.0 0.2
21:34 10.0 9.9 99 1022.8 1.6 SE 3.1 0.0 0.2
21:35 10.0 9.9 99 1022.8 2.2 SE 3.1 0.0 0.2
21:36 10.0 9.9 99 1022.8 2.2 SE 3.1 0.0 0.2
21:36 10.0 9.9 99 1022.8 2.2 SE 3.1 0.0 0.2
21:38 10.0 9.9 99 1022.8 2.2 SE 3.1 0.0 0.2
21:39 10.0 9.9 99 1022.9 2.2 SE 3.1 0.0 0.2
21:40 10.0 9.9 99 1022.8 1.6 SE 3.1 0.0 0.2
21:41 10.0 9.9 99 1022.8 1.6 SE 3.1 0.0 0.2
21:42 10.0 9.9 99 1022.8 1.6 SE 3.1 0.0 0.2
21:43 10.0 9.9 99 1022.9 1.6 SE 3.1 0.0 0.2
21:44 10.0 9.9 99 1022.8 1.6 SE 3.1 0.0 0.2
21:44 10.0 9.9 99 1022.8 1.6 SE 3.1 0.0 0.2
21:45 10.0 9.9 99 1022.9 1.6 SE 2.2 0.0 0.2
21:47 10.0 9.9 99 1022.8 1.6 SE 2.2 0.0 0.2
21:48 10.0 9.9 99 1023.1 1.6 SE 2.2 0.0 0.2
21:49 10.0 9.9 99 1022.9 1.6 SE 1.6 0.0 0.2
21:50 10.0 9.9 99 1023.0 1.6 SE 1.6 0.0 0.2
21:51 10.0 9.9 99 1023.0 1.6 SE 1.6 0.0 0.2
21:52 10.0 9.9 99 1022.8 1.6 SE 1.6 0.0 0.2
21:53 10.0 9.9 99 1022.8 1.6 SE 1.6 0.0 0.2
21:53 10.0 9.9 99 1022.8 1.6 SE 1.6 0.0 0.2
21:54 10.0 9.9 99 1022.9 1.6 SE 1.6 0.0 0.2
21:56 10.0 9.9 99 1022.9 1.6 SE 1.6 0.0 0.2
21:57 10.0 9.9 99 1022.9 1.6 SE 1.6 0.0 0.2
21:58 10.0 9.9 99 1022.8 0.7 SE 1.6 0.0 0.2
21:59 10.0 9.9 99 1022.9 1.6 SE 1.6 0.0 0.2
22:00 10.0 9.9 99 1022.9 3.1 SE 3.1 0.0 0.2
22:01 10.0 9.9 99 1022.8 2.2 SE 3.1 0.0 0.2
22:01 10.0 9.9 99 1022.8 2.2 SE 3.1 0.0 0.2
22:01 10.0 9.9 99 1022.8 2.2 SE 3.1 0.0 0.2
22:04 10.0 9.9 99 1023.0 2.2 SE 3.1 0.0 0.2
22:04 10.0 9.9 99 1023.0 2.2 SE 3.1 0.0 0.2
22:06 10.0 9.9 99 1022.9 2.2 SE 3.1 0.0 0.2
22:07 10.0 9.9 99 1022.8 2.2 SE 3.1 0.0 0.2
22:07 10.0 9.9 99 1022.8 2.2 SE 3.1 0.0 0.2
22:09 10.0 9.9 99 1022.7 1.6 SE 3.1 0.0 0.2
22:10 10.0 9.9 99 1022.7 2.2 SE 3.1 0.0 0.2
22:10 10.0 9.9 99 1022.7 2.2 SE 3.1 0.0 0.2
22:12 10.0 9.9 99 1022.6 1.6 SE 2.2 0.0 0.2
22:13 10.0 9.9 99 1022.8 2.2 SE 2.2 0.0 0.2
22:13 10.0 9.9 99 1022.8 2.2 SE 2.2 0.0 0.2
22:15 10.0 9.9 99 1022.8 1.6 SE 2.2 0.0 0.2
22:15 10.0 9.9 99 1022.8 1.6 SE 2.2 0.0 0.2
22:16 10.0 9.9 99 1022.9 1.6 SE 2.2 0.0 0.2
22:18 10.0 9.9 99 1022.8 0.7 SE 2.2 0.0 0.2
22:18 10.0 9.9 99 1022.8 0.7 SE 2.2 0.0 0.2
22:20 10.0 9.9 99 1022.8 0.7 SE 2.2 0.0 0.2
22:21 10.0 9.9 99 1022.8 0.7 SE 2.2 0.0 0.2
22:22 10.0 9.9 99 1022.7 0.7 SE 2.2 0.0 0.2
22:23 10.0 9.9 99 1022.8 1.6 SE 2.2 0.0 0.2
22:23 10.0 9.9 99 1022.8 1.6 SE 2.2 0.0 0.2
22:25 10.0 9.9 99 1022.8 1.6 SE 2.2 0.0 0.2
22:25 10.0 9.9 99 1022.8 1.6 SE 2.2 0.0 0.2
22:27 10.0 9.9 99 1022.8 2.2 SE 2.2 0.0 0.2
22:27 10.0 9.9 99 1022.8 2.2 SE 2.2 0.0 0.2
22:29 10.0 9.9 99 1022.7 3.1 SE 3.1 0.0 0.2
22:30 10.0 9.9 99 1022.7 2.2 SE 3.1 0.0 0.2
22:31 10.0 9.9 99 1022.7 3.1 SE 3.1 0.0 0.2
22:32 10.0 9.9 99 1022.6 1.6 SE 3.1 0.0 0.2
22:32 10.0 9.9 99 1022.6 1.6 SE 3.1 0.0 0.2
22:33 10.0 9.9 99 1022.7 2.2 SE 3.1 0.0 0.2
22:35 10.0 9.9 99 1022.6 2.2 SE 3.1 0.0 0.2
22:36 10.0 9.9 99 1022.7 2.2 SE 3.1 0.0 0.2
22:37 10.0 9.9 99 1022.6 1.6 SE 3.1 0.0 0.2
22:38 10.0 9.9 99 1022.6 2.2 SE 3.1 0.0 0.2
22:39 10.0 9.9 99 1022.5 2.2 SE 3.1 0.0 0.0
22:39 10.0 9.9 99 1022.5 2.2 SE 3.1 0.0 0.2
22:39 10.0 9.9 99 1022.5 2.2 SE 3.1 0.0 0.2
22:42 10.0 9.9 99 1022.6 2.2 SE 2.2 0.0 0.2
22:43 10.0 9.9 99 1022.6 2.2 SE 2.2 0.0 0.2
22:44 10.0 9.9 99 1022.6 1.6 SE 2.2 0.0 0.2
22:45 10.0 9.9 99 1022.7 1.6 SE 2.2 0.0 0.2
22:46 10.0 9.9 99 1022.8 0.7 SE 2.2 0.0 0.2
22:46 10.0 9.9 99 1022.8 0.7 SE 2.2 0.0 0.2
22:47 10.0 9.9 99 1022.8 1.6 SE 2.2 0.0 0.2
22:49 10.0 9.9 99 1022.8 1.6 SE 2.2 0.0 0.2
22:50 10.0 9.9 99 1022.7 1.6 SE 2.2 0.0 0.2
22:51 10.0 9.9 99 1022.8 1.6 SE 2.2 0.0 0.2
22:52 10.0 9.9 99 1022.7 1.6 SE 2.2 0.0 0.2
22:53 10.0 9.9 99 1022.7 0.7 SE 2.2 0.0 0.2
22:54 10.0 9.9 99 1022.7 0.7 SE 1.6 0.0 0.2
22:55 10.0 9.9 99 1022.7 1.6 SE 1.6 0.0 0.2
22:55 10.0 9.9 99 1022.7 1.6 SE 1.6 0.0 0.2
22:57 10.0 9.9 99 1022.7 1.6 SE 1.6 0.0 0.2
22:58 10.0 9.9 99 1022.7 1.6 SE 1.6 0.0 0.2
22:59 10.0 9.9 99 1022.7 2.2 SE 2.2 0.0 0.2
23:00 10.0 9.9 99 1022.6 2.2 SE 2.2 0.0 0.2
23:01 10.0 9.9 99 1022.5 1.6 SE 2.2 0.0 0.2
23:02 10.0 9.9 99 1022.7 2.2 SE 2.2 0.0 0.2
23:03 10.0 9.9 99 1022.5 2.2 SE 2.2 0.0 0.2
23:04 10.0 9.9 99 1022.7 2.2 SE 2.2 0.0 0.2
23:04 10.0 9.9 99 1022.7 2.2 SE 2.2 0.0 0.2
23:05 10.0 9.9 99 1022.7 2.2 SE 2.2 0.0 0.2
23:07 10.0 9.9 99 1022.6 2.2 SE 2.2 0.0 0.2
23:07 10.0 9.9 99 1022.6 2.2 SE 2.2 0.0 0.2
23:09 10.0 9.9 99 1022.6 1.6 SE 2.2 0.0 0.2
23:10 10.0 9.9 99 1022.7 1.6 SE 2.2 0.0 0.2
23:10 10.0 9.9 99 1022.7 1.6 SE 2.2 0.0 0.2
23:12 10.0 9.9 99 1022.7 1.6 SE 2.2 0.0 0.2
23:12 10.0 9.9 99 1022.7 1.6 SE 2.2 0.0 0.2
23:14 10.0 9.9 99 1022.7 2.2 SE 2.2 0.0 0.2
23:15 10.0 9.9 99 1022.8 2.2 SE 2.2 0.0 0.2
23:15 10.0 9.9 99 1022.8 2.2 SE 2.2 0.0 0.2
23:17 10.1 10.0 99 1022.5 2.2 SE 2.2 0.0 0.2
23:17 10.1 10.0 99 1022.5 2.2 SE 2.2 0.0 0.2
23:19 10.0 9.9 99 1022.6 1.6 SE 2.2 0.0 0.2
23:19 10.0 9.9 99 1022.6 1.6 SE 2.2 0.0 0.2
23:21 10.1 10.0 99 1022.7 2.2 SE 2.2 0.0 0.2
23:21 10.1 10.0 99 1022.7 2.2 SE 2.2 0.0 0.2
23:22 10.1 10.0 99 1022.7 2.2 SE 2.2 0.0 0.2
23:24 10.1 10.0 99 1022.7 2.2 SE 2.2 0.0 0.2
23:24 10.1 10.0 99 1022.7 2.2 SE 2.2 0.0 0.2
23:25 10.1 10.0 99 1022.7 2.2 SE 2.2 0.0 0.2
23:27 10.1 10.0 99 1022.6 3.1 SE 3.1 0.0 0.2
23:29 10.1 10.0 99 1022.8 2.2 SE 3.1 0.0 0.2
23:30 10.1 10.0 99 1022.7 2.2 SE 3.1 0.0 0.2
23:30 10.1 10.0 99 1022.7 2.2 SE 3.1 0.0 0.2
23:31 10.1 10.0 99 1022.9 1.6 SE 3.1 0.0 0.2
23:33 10.1 10.0 99 1022.9 0.7 SE 3.1 0.0 0.2
23:34 10.1 10.0 99 1022.9 1.6 SE 3.1 0.0 0.2
23:35 10.1 10.0 99 1022.9 1.6 SE 3.1 0.0 0.2
23:36 10.1 10.0 99 1022.9 0.7 SE 3.1 0.0 0.2
23:37 10.1 10.0 99 1022.9 1.6 SE 2.2 0.0 0.2
23:38 10.1 10.0 99 1023.0 0.7 SE 2.2 0.0 0.2
23:38 10.1 10.0 99 1023.0 0.7 SE 2.2 0.0 0.2
23:39 10.1 10.0 99 1023.0 0.7 SE 2.2 0.0 0.2
23:41 10.1 10.0 99 1023.0 1.6 SE 1.6 0.0 0.2
23:42 10.1 10.0 99 1023.0 2.2 SE 2.2 0.0 0.2
23:43 10.1 10.0 99 1023.0 2.2 SE 2.2 0.0 0.2
23:44 10.1 10.0 99 1022.9 2.2 SE 2.2 0.0 0.2
23:45 10.1 10.0 99 1023.0 1.6 SE 2.2 0.0 0.2
23:46 10.1 10.0 99 1022.8 2.2 SE 2.2 0.0 0.2
23:46 10.1 10.0 99 1022.8 2.2 SE 2.2 0.0 0.2
23:47 10.1 10.0 99 1023.0 2.2 SE 2.2 0.0 0.2
23:48 10.1 10.0 99 1022.9 2.2 SE 2.2 0.0 0.2
23:50 10.1 10.0 99 1022.8 1.6 SE 2.2 0.0 0.2
23:51 10.1 10.0 99 1022.9 2.2 SE 2.2 0.0 0.2
23:52 10.1 10.0 99 1022.8 2.2 SE 2.2 0.0 0.2
23:53 10.1 10.0 99 1022.8 1.6 SE 2.2 0.0 0.2
23:54 10.1 10.0 99 1022.9 2.2 SE 2.2 0.0 0.2
23:55 10.1 10.0 99 1022.7 1.6 SE 2.2 0.0 0.2
23:56 10.1 10.0 99 1022.8 2.2 SE 2.2 0.0 0.2
23:56 10.1 10.0 99 1022.8 2.2 SE 2.2 0.0 0.2
23:57 10.1 10.0 99 1022.7 2.2 SE 2.2 0.0 0.2
23:59 10.1 10.0 99 1022.7 3.1 SE 3.1 0.0 0.2
23:59 10.1 10.0 99 1022.7 3.1 SE 3.1 0.0 0.2

UK - WEATHER STATION TOPSITES - UK World Weather Websites

This is a private weather station, never base important decisions or events on data from this weather station. Although every effort has been made to make the data as accurate as possible it does not meet MetOffice standards. It is proved as a guide of local weather conditions. We accept no liability for any loss which may arise from use of the data.

Copyright © Carnkie Weather 2009 - 2017.